GFSCGP_sfc_temp_075.txt.gz
Temp
52 47 42 45 46 49 48 45 44 49 55 52 52 53 57 62 63 63 66 67 69 69 74 76 68 68 68 67 63 64 63 63 63 63 61 60 60 61 61 63 65 63 63 64
46 41 49 50 49 46 46 43 43 48 53 52 52 52 58 61 62 64 67 68 68 70 72 69 65 66 66 64 63 64 64 63 64 66 63 62 61 61 62 63 62 65 63 62
43 46 50 48 46 43 44 41 42 42 49 52 50 48 53 60 63 65 66 69 70 69 70 67 63 65 66 63 63 64 65 65 65 65 65 61 61 61 60 59 61 61 61 60
44 49 47 46 44 45 38 48 46 45 43 37 51 38 50 56 59 62 65 67 68 70 69 70 64 63 65 65 65 65 65 65 65 64 62 60 60 58 60 60 60 61 62 61
43 43 42 42 45 48 43 49 46 46 44 42 43 40 47 55 53 60 64 66 68 69 68 66 63 66 67 66 64 63 64 64 63 64 63 62 62 65 62 61 60 60 61 61
46 51 48 48 49 50 51 46 47 47 43 33 42 42 44 49 55 59 63 64 65 68 67 67 65 66 66 66 63 60 61 62 63 63 64 62 61 61 61 59 61 60 60 60
43 44 49 50 45 49 47 42 34 31 31 33 46 41 45 54 57 55 56 59 61 63 65 63 63 63 64 63 60 59 61 60 61 62 62 61 61 61 60 60 60 59 58 58
36 35 43 48 46 42 42 42 34 27 29 35 44 38 47 52 56 57 57 57 59 61 66 63 64 63 63 62 59 61 60 59 60 60 61 61 61 60 61 60 60 61 60 60
36 37 47 47 49 50 41 37 45 34 37 31 42 48 51 54 53 53 53 54 56 59 64 64 63 63 63 62 59 60 60 59 59 59 61 61 60 60 61 61 63 61 61 61
44 36 46 45 50 48 45 46 34 35 27 28 38 41 40 45 47 50 49 49 52 58 59 60 61 61 63 61 60 60 61 63 61 60 62 63 63 62 61 61 60 60 60 61
46 41 40 45 43 41 41 40 37 36 37 31 30 35 46 45 47 47 47 47 48 50 55 58 60 60 60 60 59 59 61 63 63 61 61 62 62 63 63 61 60 60 60 59
44 39 34 40 48 50 47 43 40 32 32 35 35 36 47 48 49 48 46 47 47 48 49 54 57 57 57 57 58 58 59 61 62 62 61 61 61 61 61 61 63 63 61 60
43 35 30 34 41 45 41 42 39 38 35 32 32 36 49 49 49 48 45 44 45 46 46 47 48 49 52 54 54 54 55 57 59 60 60 60 60 60 60 61 62 63 63 63
44 39 32 31 35 40 36 42 43 37 30 31 34 39 45 44 45 47 47 45 44 43 43 43 44 45 46 47 48 49 50 52 57 59 58 56 58 59 59 60 61 62 62 63
38 33 35 39 40 40 39 40 42 39 39 33 40 39 44 47 47 46 48 47 43 42 41 41 40 42 43 44 46 47 48 49 51 51 50 49 50 51 53 55 58 60 60 62
38 34 36 35 39 39 37 42 42 41 42 42 42 41 52 53 51 46 45 46 43 41 40 40 40 40 41 42 43 45 45 44 46 44 44 46 47 48 48 49 50 50 50 51
35 34 35 31 36 37 34 39 41 42 45 45 39 46 50 47 48 46 45 45 42 41 40 39 38 39 40 41 42 42 43 44 42 40 42 43 45 45 45 46 46 46 47 48
34 37 35 31 34 24 40 47 46 43 46 48 48 47 45 42 40 45 46 42 39 38 37 36 37 39 40 41 41 41 41 40 40 40 40 41 43 43 44 45 45 45 46 44
38 37 32 28 29 35 40 42 40 39 41 44 44 46 43 42 42 37 39 39 36 35 34 34 36 36 38 40 40 38 38 39 37 36 37 39 40 40 40 40 41 42 42 41
38 39 35 28 25 22 38 42 46 45 36 43 42 44 44 44 38 34 36 34 33 34 35 35 36 35 36 37 38 37 36 35 33 34 35 37 38 37 37 37 38 39 39 37
31 32 30 30 28 33 38 42 45 33 35 41 40 43 46 41 36 33 33 31 31 32 34 35 34 33 34 35 36 34 34 32 34 34 34 35 36 35 37 37 37 37 36 35
33 29 28 31 27 24 39 42 35 37 40 39 38 36 34 33 31 30 30 29 29 29 33 34 32 31 33 35 34 32 30 33 34 34 33 33 33 33 34 34 34 35 35 34
31 34 33 35 34 38 40 37 37 42 40 38 36 36 34 31 29 28 27 27 27 29 32 33 32 31 31 32 33 30 31 32 33 32 31 32 33 32 33 32 31 31 31 31
38 38 33 33 35 36 36 37 36 36 35 35 36 34 31 27 27 26 26 26 26 27 29 31 30 29 28 30 31 31 32 33 32 31 30 30 30 30 31 32 31 30 29 29
34 35 31 33 34 34 34 34 34 33 33 32 32 31 30 29 27 27 26 25 25 25 27 28 27 27 26 28 28 29 32 32 30 30 29 29 29 28 27 27 28 29 28 29
33 31 29 28 32 31 29 31 33 31 30 31 31 29 29 28 25 25 23 24 24 24 25 25 25 24 25 25 25 27 29 31 30 28 27 27 27 28 28 27 25 27 28 28

GFSCGP_sfc_temp_078.txt.gz
Temp
60 53 49 51 55 57 54 48 48 54 60 56 56 60 66 70 71 71 73 75 77 80 86 88 87 83 82 81 79 76 68 69 68 66 63 63 63 64 63 65 66 65 65 63
53 48 58 58 56 52 52 49 48 54 58 57 58 59 66 68 70 72 73 74 77 80 83 85 85 81 79 78 78 75 72 69 69 69 67 65 63 64 65 65 65 66 69 65
50 55 56 55 52 49 51 49 50 50 54 58 57 57 63 68 69 71 74 76 78 79 81 84 82 79 78 77 76 76 74 74 72 72 71 71 65 65 63 63 64 65 69 64
52 57 52 51 50 52 46 54 51 50 49 48 58 46 59 64 66 68 71 74 77 79 82 84 84 78 77 77 77 77 76 72 74 75 71 69 65 60 66 66 61 66 65 61
49 50 48 47 50 54 49 53 51 51 49 49 51 48 58 62 60 65 71 74 77 80 83 83 84 82 80 79 76 76 75 72 75 74 72 71 65 64 69 65 61 62 62 61
53 59 54 54 54 55 55 51 53 53 50 39 50 49 56 59 60 65 69 72 74 77 79 82 83 80 79 78 75 73 72 70 73 73 71 67 65 65 67 63 63 60 60 60
50 52 56 55 49 54 52 47 40 39 36 39 52 49 54 63 62 63 64 68 71 73 75 79 77 76 76 74 68 68 72 67 69 72 71 70 70 67 65 67 63 61 60 59
44 41 49 54 51 48 48 47 40 32 37 44 52 44 56 60 63 64 66 67 70 72 74 77 76 75 75 73 63 65 68 65 67 70 71 68 68 65 65 66 68 66 63 63
44 44 53 54 54 54 47 42 52 41 44 38 48 55 59 62 61 63 62 62 61 66 70 74 74 75 74 72 61 63 65 65 66 67 70 69 67 67 65 65 65 64 65 65
50 41 52 52 55 54 51 54 37 40 31 34 47 49 49 51 54 58 57 55 54 56 64 70 71 70 73 67 63 64 67 65 65 66 65 68 68 68 66 65 65 69 67 65
53 48 46 50 47 48 46 44 43 38 41 37 38 38 44 45 48 48 52 50 48 49 50 64 67 68 66 63 62 61 66 65 63 63 63 67 68 67 65 65 65 65 64 64
51 45 41 47 56 57 55 49 47 38 36 38 35 42 49 48 47 47 47 46 47 47 48 48 57 60 60 60 60 61 66 67 67 63 63 65 66 67 67 65 64 64 63 63
39 39 36 41 46 52 48 49 41 38 36 35 33 40 47 47 47 47 45 44 44 44 44 45 47 47 47 52 56 57 61 62 61 63 63 62 61 61 63 66 68 67 65 63
38 40 41 38 33 47 42 47 49 44 36 40 40 42 45 46 45 45 46 43 42 41 41 42 42 43 44 46 47 49 50 55 57 59 57 55 58 60 61 63 65 66 67 66
36 35 42 42 39 43 45 46 47 44 45 38 46 48 53 55 52 49 50 44 41 39 39 39 39 40 41 43 44 45 47 49 50 50 50 48 49 51 52 52 53 57 61 64
36 34 42 38 40 45 43 47 48 48 48 48 49 48 58 58 55 49 47 43 40 38 38 38 39 39 40 41 43 44 43 45 47 46 45 48 48 47 47 48 48 49 50 50
33 33 38 33 43 43 38 45 47 47 51 49 43 50 57 53 49 48 45 45 40 37 38 38 37 38 39 40 41 43 44 46 45 45 45 47 48 47 47 48 47 47 46 45
33 32 37 36 39 28 45 53 52 48 51 52 52 50 50 45 41 41 43 41 39 39 35 37 38 40 40 41 42 43 44 45 44 46 45 45 45 47 49 49 48 46 43 41
40 35 33 34 35 41 45 46 46 45 46 50 48 51 45 41 40 34 36 36 33 34 35 36 41 38 40 40 42 41 42 43 41 39 40 42 44 44 46 45 44 45 44 41
40 42 34 36 30 26 42 48 52 52 41 48 47 46 45 44 38 32 34 33 32 32 33 34 38 40 39 38 41 40 39 37 36 39 40 42 41 43 41 42 42 43 43 41
35 37 33 35 34 40 46 49 52 36 36 45 44 40 41 41 33 30 30 30 31 33 33 34 36 37 39 41 41 37 37 37 37 39 38 38 41 40 40 41 42 41 40 40
37 34 34 36 31 29 46 48 40 39 42 42 39 36 31 30 30 29 29 29 30 31 34 38 38 37 39 41 41 38 35 35 38 39 38 36 37 39 40 39 39 40 39 38
34 37 36 40 37 41 41 40 39 41 39 38 37 36 34 30 28 28 28 28 29 30 37 39 37 35 37 39 40 36 36 38 38 36 36 37 37 36 38 38 39 39 39 38
41 41 36 35 32 34 36 37 36 36 35 35 35 33 31 28 28 27 27 27 27 29 34 38 36 34 33 35 36 37 38 39 38 36 35 34 35 35 36 36 36 35 34 34
35 40 34 32 32 33 34 34 37 35 34 33 33 33 32 30 29 29 28 27 26 27 29 33 32 32 32 34 34 37 38 38 36 36 35 34 34 32 30 30 31 30 29 31
34 30 30 31 32 31 30 33 35 34 33 32 34 32 32 30 27 27 26 28 28 27 29 29 30 30 30 31 31 33 36 38 36 34 34 33 34 34 34 31 27 27 27 28

GFSCGP_sfc_temp_081.txt.gz
Temp
64 57 54 57 60 58 58 55 54 60 64 61 59 62 66 71 72 72 75 76 79 82 87 91 91 91 90 89 86 82 78 78 77 75 71 70 69 70 68 68 67 66 68 69
60 53 62 64 62 58 55 52 50 58 64 60 60 61 67 70 71 74 75 76 78 81 85 87 90 89 86 86 84 82 78 77 77 77 75 73 70 72 72 71 69 67 67 67
55 61 61 59 58 54 55 52 53 53 61 64 60 58 63 70 71 74 77 79 81 81 82 85 87 87 84 84 82 82 79 77 76 77 75 73 67 70 67 69 69 69 70 70
58 64 60 58 54 57 50 60 57 54 53 48 64 47 61 67 70 73 75 76 78 80 83 85 87 86 83 83 83 82 80 78 77 76 73 69 68 66 71 71 70 70 70 69
53 57 55 52 54 59 53 60 55 54 50 51 54 51 58 68 65 70 74 76 78 80 82 84 86 89 87 84 82 81 80 79 78 77 77 74 73 72 73 72 67 65 66 63
57 66 60 58 60 59 60 54 54 55 51 41 51 53 56 64 64 68 73 76 79 81 83 86 88 90 87 85 82 79 79 78 78 78 77 75 73 71 71 69 65 62 62 61
57 57 62 59 54 58 55 49 40 42 41 40 57 52 57 66 66 66 67 71 74 77 79 82 85 87 86 82 79 78 79 75 78 77 76 75 74 71 67 68 66 61 59 59
48 45 57 60 55 53 53 50 40 33 36 40 53 47 54 66 69 69 71 70 70 70 75 80 84 85 83 81 78 78 78 73 77 76 75 75 75 73 73 72 70 66 62 61
48 49 60 60 60 58 51 46 55 44 47 41 48 57 64 64 63 66 65 66 64 64 66 74 82 81 82 79 71 71 76 68 73 76 76 74 72 71 70 70 69 67 67 65
53 45 57 58 60 59 55 56 40 44 32 34 47 50 43 51 55 57 56 56 56 55 55 62 78 79 80 73 68 66 71 66 70 75 75 71 71 71 70 69 68 67 67 67
55 51 50 57 52 51 51 47 48 46 44 36 36 39 48 47 50 49 52 53 49 47 47 53 58 74 73 66 64 64 65 66 66 67 71 68 67 70 69 68 69 68 67 66
48 44 43 50 60 63 58 52 49 38 40 44 42 41 49 51 49 49 51 49 46 45 44 46 49 52 62 61 61 62 65 64 65 67 67 67 67 67 68 67 69 69 67 66
39 41 37 43 51 58 53 55 54 48 43 39 35 39 48 52 54 52 49 48 44 42 42 43 44 45 47 49 53 55 62 63 63 64 64 64 65 66 66 66 66 66 65 63
44 37 37 36 40 44 42 52 52 48 38 41 43 48 48 54 53 52 50 48 42 40 40 40 40 41 43 45 46 47 48 53 58 59 57 57 60 65 66 67 67 64 65 63
43 35 40 45 50 48 42 40 50 46 47 41 48 50 56 58 57 53 51 46 41 38 37 37 38 39 41 42 42 44 45 46 50 50 49 48 49 51 51 51 56 59 56 55
41 34 40 34 46 47 42 45 51 51 51 51 52 52 59 57 58 54 48 45 40 38 37 36 37 38 38 40 41 42 42 44 46 46 46 47 47 48 47 48 49 47 46 47
36 35 33 29 43 43 34 44 49 52 54 53 45 51 56 50 52 49 44 43 40 37 37 36 36 36 37 38 40 40 41 45 44 44 45 47 48 47 47 47 45 43 41 41
34 34 32 28 40 28 46 55 56 52 54 55 53 50 50 42 38 38 41 38 35 36 34 35 35 37 38 39 39 41 40 40 42 44 44 46 48 48 47 46 43 42 40 39
46 34 29 28 37 41 48 50 50 48 43 51 50 52 47 42 40 33 35 35 33 33 34 32 36 37 38 39 40 39 39 40 40 39 41 45 46 46 46 44 44 43 42 40
44 39 31 31 30 28 42 52 56 56 40 48 49 48 48 44 37 31 33 33 32 32 33 33 33 33 34 36 40 38 37 37 37 38 40 42 42 43 42 42 42 44 44 42
34 35 30 31 35 41 48 53 56 38 34 47 46 42 39 34 31 30 31 31 32 32 32 33 34 34 35 36 34 33 35 35 37 39 40 40 41 40 41 43 43 43 42 42
38 36 35 38 34 29 47 51 41 38 44 44 42 38 33 31 30 30 30 30 31 32 34 35 33 37 41 44 42 39 35 34 35 37 37 37 38 40 42 41 40 40 42 40
33 35 33 34 32 39 41 39 39 42 39 39 38 37 34 31 30 30 29 30 31 33 37 41 40 39 41 44 43 40 40 41 41 40 37 36 36 36 37 36 37 38 39 37
42 47 37 37 32 33 36 39 38 38 36 37 37 37 34 30 30 29 29 29 29 30 36 40 39 37 36 40 41 41 42 43 40 37 37 37 37 37 38 36 33 31 34 34
39 43 37 31 34 37 37 36 36 36 36 35 36 35 33 31 30 31 29 28 28 30 31 37 36 35 35 37 38 41 41 41 38 37 36 35 34 32 29 28 30 29 29 29
37 30 31 30 35 34 31 34 35 34 35 35 35 34 33 31 28 29 28 29 29 28 29 29 30 31 31 31 31 33 37 40 38 35 35 35 36 35 33 30 26 28 28 28

GFSCGP_sfc_temp_084.txt.gz
Temp
63 54 50 56 60 59 57 54 51 58 64 60 59 60 64 69 70 70 71 73 74 76 81 84 84 85 84 82 82 78 74 72 73 68 67 66 63 65 65 66 66 67 67 67
58 51 60 64 63 60 57 53 52 57 62 60 59 59 65 68 69 71 71 72 74 75 78 81 81 82 81 81 81 77 75 74 74 71 70 70 69 67 67 67 67 67 67 67
54 59 66 61 58 56 56 52 51 52 59 61 57 55 61 67 69 71 73 74 75 75 76 79 81 79 79 79 79 78 75 75 74 73 72 70 69 67 67 65 65 66 67 66
58 65 61 59 56 57 49 60 58 55 52 43 58 41 56 63 67 70 71 71 72 75 78 80 81 81 79 79 79 79 77 76 74 74 71 67 65 64 66 65 66 67 67 66
53 58 56 53 55 59 53 61 57 55 50 48 49 45 53 63 63 68 71 73 72 75 77 78 80 83 81 79 78 78 76 75 74 74 71 68 65 67 67 66 65 65 64 65
58 66 62 59 61 61 61 55 55 53 49 38 46 47 48 55 59 63 69 72 72 74 76 79 82 83 82 80 78 77 75 74 74 73 70 68 67 67 66 64 63 62 61 61
57 58 63 63 54 59 56 49 38 36 38 35 47 43 52 58 62 65 66 66 67 67 67 69 75 82 82 77 76 76 75 73 73 72 72 70 69 67 67 65 63 61 59 59
47 44 59 62 55 52 52 49 38 29 32 37 49 36 49 62 63 61 61 61 62 61 60 62 64 60 80 77 76 75 75 74 73 72 72 71 69 67 67 66 64 62 60 60
45 47 60 61 62 59 51 45 54 42 45 38 44 48 51 53 57 58 56 57 55 55 55 57 59 60 79 77 74 73 75 74 74 72 71 69 68 67 65 65 65 64 62 62
51 40 56 59 61 60 55 58 40 37 29 31 43 45 38 43 47 52 52 52 52 51 50 52 52 54 71 74 70 69 70 72 71 70 71 70 67 67 66 65 64 64 63 62
51 44 44 53 47 49 51 47 48 46 42 32 29 33 41 44 48 49 52 51 48 46 45 46 47 50 55 66 64 64 66 65 67 65 67 67 66 65 66 66 65 65 64 63
48 37 35 45 58 60 57 52 50 37 36 41 39 38 49 52 53 53 50 50 47 44 43 44 44 46 48 49 57 62 62 62 63 66 65 63 64 64 64 64 65 64 63 63
47 39 31 39 50 57 49 53 49 47 43 36 31 37 50 53 55 53 51 48 45 43 41 41 41 41 43 44 47 49 54 60 61 63 63 63 63 63 63 64 64 65 63 61
45 40 34 30 37 41 38 43 47 48 36 39 40 42 50 50 54 54 49 45 42 40 39 39 38 39 40 42 43 43 46 51 57 57 54 53 54 57 57 59 62 62 62 61
44 33 38 40 44 45 41 37 42 41 41 39 45 47 49 51 52 50 49 46 41 38 37 37 36 37 38 39 41 42 43 46 49 50 49 49 50 51 53 51 51 51 51 50
41 33 38 35 43 44 40 46 43 41 39 41 43 48 49 49 54 49 46 44 40 38 37 36 36 36 36 36 39 40 42 42 45 46 46 47 48 48 46 46 45 44 44 43
37 31 31 29 41 40 34 45 47 47 47 50 43 45 49 43 41 41 41 40 37 35 35 35 34 35 35 36 37 36 38 43 43 43 45 46 46 45 43 43 42 40 40 40
37 34 33 29 34 22 44 56 55 51 48 46 50 48 45 38 35 35 37 36 34 34 33 34 34 34 35 36 36 37 38 38 39 41 43 45 44 43 43 41 39 39 39 38
46 38 30 27 28 33 47 52 51 48 36 46 47 48 45 40 38 32 33 33 32 32 33 32 34 34 33 34 36 35 35 36 36 36 38 42 43 43 41 40 39 39 38 36
47 44 32 29 22 23 34 47 56 55 33 43 46 42 41 43 35 29 32 32 31 32 32 33 32 32 33 32 34 34 32 33 33 35 35 39 40 41 41 41 41 40 40 37
36 34 28 28 25 31 37 45 55 37 31 42 42 38 34 30 29 30 31 31 32 33 33 33 34 33 32 32 32 32 32 32 34 34 35 35 36 38 38 40 41 40 38 37
34 31 31 32 28 25 40 43 35 35 40 41 38 35 31 30 30 30 31 31 32 32 34 35 33 34 35 35 34 32 31 32 33 34 34 33 35 37 35 37 38 38 37 35
30 35 30 30 28 36 38 36 38 39 36 37 36 36 34 31 29 30 29 30 30 32 35 35 34 35 39 40 39 35 34 34 33 33 32 32 32 32 33 31 33 34 35 34
38 44 34 33 33 34 35 37 36 36 35 37 37 35 32 29 29 28 28 29 29 31 32 35 35 35 36 39 40 40 40 40 37 34 32 31 29 29 31 30 29 28 30 30
35 39 33 31 33 35 35 35 36 36 36 34 34 34 32 31 30 29 28 28 28 29 29 31 30 30 30 32 31 35 40 40 36 34 32 31 29 27 26 26 27 26 26 28
34 29 28 28 32 32 31 34 36 33 34 35 35 32 32 31 29 28 27 27 27 26 28 27 27 27 28 29 30 31 34 37 35 33 33 33 31 30 28 25 24 29 28 29

GFSCGP_sfc_temp_087.txt.gz
Temp
54 43 38 44 48 51 50 47 45 49 55 53 52 52 56 62 64 65 64 67 68 70 73 74 75 79 75 75 73 72 70 68 67 65 62 62 62 64 62 62 63 64 64 64
49 42 51 56 55 53 50 46 44 49 55 54 51 50 54 60 62 63 65 67 68 71 73 75 74 73 73 71 72 71 70 68 66 66 65 61 60 64 61 61 62 66 63 63
45 51 59 56 54 51 49 46 46 47 52 54 50 48 51 59 62 66 69 70 70 69 68 75 73 71 69 72 71 69 69 69 66 65 65 63 61 60 59 60 61 64 65 63
49 57 56 54 52 53 44 53 53 51 46 37 48 34 48 55 58 64 65 68 68 70 72 71 72 71 68 71 72 70 69 69 67 66 64 63 62 59 59 61 63 61 62 63
47 51 50 49 51 55 48 55 51 48 44 40 44 37 44 54 53 60 55 61 66 66 62 67 70 73 71 74 71 70 69 69 69 67 65 62 59 59 59 60 60 61 62 62
51 58 54 52 57 56 56 51 48 46 42 32 42 38 39 47 52 55 55 56 56 56 57 59 60 61 64 72 72 70 68 69 68 67 65 63 60 60 59 59 59 59 60 61
49 51 57 59 49 53 49 41 29 28 28 29 47 40 42 47 51 53 53 53 53 53 53 53 53 53 56 58 70 69 68 67 68 65 65 64 62 60 59 60 59 59 58 58
39 36 51 58 52 46 44 42 29 24 26 32 46 36 41 44 53 55 55 54 52 50 50 50 50 50 52 59 68 69 66 66 66 65 65 66 63 62 61 62 60 59 60 60
37 39 53 58 57 53 45 39 48 37 39 32 39 45 48 49 49 50 52 51 47 46 46 47 49 50 51 63 67 66 67 67 66 66 66 65 64 63 60 60 60 60 60 60
43 33 49 53 56 54 50 51 32 33 26 26 37 37 35 41 46 48 48 46 45 44 44 46 46 47 50 52 59 60 66 66 66 67 66 65 64 62 62 63 61 59 60 61
46 37 37 46 44 43 44 42 42 40 36 27 26 31 41 42 46 46 46 46 42 42 42 43 43 45 47 49 51 53 60 62 65 64 64 64 64 64 64 63 62 61 60 60
42 36 29 35 47 51 48 44 43 32 32 35 33 33 46 47 48 49 46 45 42 41 41 41 41 42 43 45 46 49 52 60 62 63 62 61 63 63 62 62 62 62 61 60
39 32 24 31 41 44 39 41 39 38 39 32 29 33 47 48 50 48 42 41 40 39 40 40 39 39 39 42 43 44 47 54 60 61 60 60 60 61 60 61 61 61 60 59
43 34 29 23 29 38 31 37 41 37 31 32 33 39 46 48 45 43 41 40 39 38 38 38 37 37 38 39 40 42 43 47 53 54 54 53 55 55 55 56 57 58 59 55
38 27 32 35 38 39 38 35 40 35 35 31 37 39 42 44 43 42 43 41 38 37 36 36 36 36 37 37 38 39 42 44 47 49 49 49 51 51 49 48 48 48 48 48
35 26 30 28 35 37 36 40 42 42 40 40 38 36 45 45 46 43 41 39 36 35 35 35 36 35 35 35 36 38 39 41 45 45 46 47 46 45 44 44 43 43 42 41
31 24 27 24 34 34 29 37 41 42 44 41 34 39 44 37 36 36 37 36 34 33 33 33 33 34 34 34 35 35 37 40 40 43 44 44 43 42 41 41 41 39 38 38
31 28 28 23 28 17 37 47 46 40 39 40 41 39 38 34 33 33 34 33 32 32 32 32 33 33 34 35 35 36 37 37 37 39 41 42 42 41 41 39 38 37 37 36
41 32 26 23 20 30 39 36 34 37 34 41 39 40 38 35 33 30 33 33 31 32 33 32 33 34 33 33 34 35 35 35 35 34 36 40 41 40 39 37 36 36 35 34
37 35 27 27 21 18 31 35 39 39 30 39 38 35 33 39 34 26 32 32 32 32 32 33 33 32 32 32 33 33 33 33 32 33 33 35 37 38 37 36 35 34 33 32
28 30 26 26 22 29 33 35 42 29 28 37 36 32 30 27 28 30 32 31 32 33 33 33 34 32 32 33 33 31 31 31 32 33 33 33 34 33 35 36 35 34 33 32
30 28 27 29 24 22 35 37 30 34 37 36 34 32 29 29 30 29 29 29 32 32 33 34 33 33 35 35 35 31 30 32 32 32 32 32 32 32 32 33 33 33 33 31
28 31 28 28 26 33 34 32 34 37 34 35 33 33 31 28 27 28 27 28 29 32 32 33 32 33 34 36 35 32 32 32 31 29 28 28 29 29 29 28 30 32 31 30
34 38 31 30 30 31 33 34 34 35 33 33 34 32 29 25 25 25 26 27 26 28 30 30 30 29 29 32 33 35 35 34 31 28 28 27 27 26 27 28 28 27 28 27
31 34 29 30 31 31 32 33 35 34 33 32 33 32 30 28 27 27 26 26 26 26 27 28 27 27 27 29 30 32 37 36 32 30 29 27 27 26 26 26 26 26 27 27
32 28 25 25 30 30 30 33 33 32 32 32 31 29 30 28 26 26 25 25 25 24 25 25 25 25 26 27 28 30 32 33 32 30 30 29 27 26 25 24 24 29 29 30

GFSCGP_sfc_temp_090.txt.gz
Temp
50 42 37 41 44 46 45 42 41 46 52 47 47 48 53 58 55 56 59 61 64 67 71 69 72 71 74 74 68 71 69 67 67 65 63 63 63 63 62 63 63 64 64 64
44 39 48 51 50 47 45 42 41 48 52 50 50 49 55 55 55 59 61 61 63 67 71 72 70 68 67 67 70 70 68 66 68 66 67 64 63 62 64 61 61 62 62 63
41 48 55 51 49 46 45 42 42 44 49 48 44 45 50 54 56 59 62 61 57 57 67 71 73 66 66 63 67 69 68 67 68 66 62 61 59 59 61 61 59 61 62 62
46 54 52 50 48 49 42 51 49 46 41 35 45 32 44 50 54 57 59 52 53 53 55 63 61 61 60 62 70 70 69 68 66 64 63 62 62 60 62 63 59 60 61 61
45 48 47 46 47 52 46 52 48 45 39 36 41 33 39 49 44 46 51 52 52 52 52 52 52 54 56 63 69 70 68 66 65 65 63 62 60 59 59 59 59 59 59 60
48 53 50 49 54 53 52 47 45 42 38 30 39 35 35 40 42 46 50 51 50 50 50 51 53 53 52 54 65 68 67 65 65 65 63 62 60 58 59 59 58 60 60 60
45 48 51 54 46 49 47 39 28 26 25 26 42 37 39 43 47 48 49 48 48 48 47 48 50 50 50 52 55 66 66 63 64 63 63 62 61 60 60 59 58 59 60 60
35 33 45 51 46 44 42 40 29 23 24 31 42 31 38 47 50 51 51 49 47 45 46 47 48 48 50 52 57 65 64 62 63 62 62 62 61 61 60 59 60 59 59 59
32 34 48 51 50 48 42 36 45 33 36 29 34 38 45 50 49 49 48 47 44 44 44 45 46 46 48 49 53 60 64 64 62 63 62 61 61 60 59 59 59 59 60 60
39 30 43 46 50 50 47 47 31 29 23 23 32 37 36 42 45 49 46 43 41 42 43 43 43 44 46 48 50 55 60 62 63 63 63 62 62 61 61 59 59 59 59 60
40 34 34 42 41 36 37 36 37 36 32 25 23 27 42 42 45 46 44 42 38 39 40 41 41 43 44 46 47 50 53 60 60 61 61 61 61 62 62 60 59 60 59 59
39 34 28 33 44 46 45 39 38 29 28 31 29 32 47 46 48 44 41 41 39 38 39 40 40 40 41 41 44 46 48 51 59 60 61 61 62 61 61 60 61 60 59 59
38 30 23 28 35 40 36 40 39 36 34 28 27 31 48 48 43 42 40 37 38 37 37 38 38 38 38 39 41 43 45 47 55 59 59 60 60 60 60 60 60 60 60 59
42 31 29 21 27 34 30 36 39 35 27 29 31 34 42 43 40 40 39 37 38 37 36 36 36 36 37 39 38 40 43 46 49 54 56 55 54 55 55 55 55 56 55 53
36 27 30 32 34 34 33 33 36 35 35 28 35 35 39 41 40 40 41 39 37 35 34 34 34 35 36 36 38 39 40 43 46 48 49 49 49 49 49 48 48 47 46 47
33 25 29 27 33 34 30 34 36 38 39 40 39 38 38 39 41 39 38 37 34 33 33 33 33 33 33 34 36 38 38 39 44 44 43 45 46 45 43 43 42 41 41 41
29 23 22 21 31 30 25 32 36 39 42 40 34 38 38 34 33 32 34 34 32 32 32 32 32 32 33 33 35 35 37 39 39 42 43 42 41 41 41 40 39 38 37 37
26 25 25 22 27 15 33 39 41 36 36 37 36 37 36 32 31 32 33 32 31 32 31 32 32 32 33 33 34 36 37 37 37 37 39 40 40 38 38 38 36 35 35 35
36 31 24 19 21 30 35 35 32 29 30 34 33 37 34 32 33 29 32 32 31 32 33 32 32 33 32 32 33 33 34 35 35 34 35 37 36 35 35 34 33 34 33 33
36 35 25 25 20 14 27 33 37 34 27 34 34 32 34 34 30 26 31 32 31 32 32 32 32 32 31 31 33 32 32 32 32 32 33 34 35 34 32 32 32 32 32 32
26 27 24 23 22 27 30 33 35 27 25 33 32 30 32 27 28 30 32 31 32 32 32 33 34 32 32 33 32 30 31 30 31 32 32 32 33 33 33 33 32 32 31 30
28 26 25 27 23 20 33 34 27 31 32 33 31 30 28 28 29 28 29 30 31 31 32 32 30 30 33 34 33 31 29 30 29 29 29 29 29 30 31 32 32 32 30 29
25 27 26 27 24 32 32 32 34 34 32 31 31 30 29 27 25 25 24 24 27 30 30 30 29 30 30 32 33 31 30 30 29 28 27 27 27 27 28 28 29 29 29 27
32 33 29 28 29 30 32 33 33 33 31 31 30 28 26 22 23 22 22 23 23 26 27 28 28 27 27 30 31 33 33 30 29 27 26 27 26 26 27 27 28 27 26 26
30 32 28 27 30 30 31 31 33 31 31 31 31 30 27 26 23 24 23 22 23 23 24 25 25 25 25 28 29 30 33 32 28 27 27 26 26 26 25 26 26 26 26 26
31 27 25 21 30 28 29 32 32 32 30 30 30 28 27 25 22 21 21 23 23 22 23 22 23 23 24 25 26 28 30 31 30 29 28 26 25 25 25 24 24 30 30 30

GFSCGP_sfc_temp_093.txt.gz
Temp
48 41 38 42 43 44 42 39 37 41 47 44 46 47 50 54 50 51 56 58 58 59 62 64 66 69 69 64 66 69 68 68 68 65 65 64 64 64 64 64 65 64 65 64
42 39 48 48 46 44 41 38 38 43 49 44 43 45 51 51 51 52 54 53 50 52 54 56 57 64 66 68 64 68 69 67 68 67 66 65 66 65 64 64 64 65 64 63
39 46 52 48 44 42 41 38 40 40 45 46 43 42 47 51 51 53 51 52 52 51 50 52 54 53 54 57 61 66 68 67 68 68 63 60 61 61 61 62 63 63 62 62
43 52 49 45 44 45 37 48 47 44 39 33 43 30 45 46 45 48 50 49 49 50 51 51 51 52 52 52 55 67 68 67 68 66 63 62 63 62 64 64 64 61 61 61
42 45 43 43 45 49 43 50 46 43 38 36 38 30 39 44 42 45 48 51 48 49 49 48 52 53 52 53 52 64 68 67 67 65 65 63 63 62 59 60 61 60 60 61
46 51 49 48 52 51 52 46 43 39 36 28 38 33 31 36 40 45 50 50 48 48 47 49 51 52 51 51 53 61 64 65 66 65 64 64 61 59 59 59 60 58 59 61
44 46 51 53 45 48 47 39 28 26 25 26 38 33 35 41 46 47 48 48 47 46 46 47 46 46 48 49 51 59 65 65 64 64 62 62 60 60 59 59 59 58 59 60
34 34 44 49 44 41 41 39 29 24 24 28 39 29 36 46 49 51 50 47 46 44 44 45 45 44 45 48 49 53 64 63 63 63 62 61 60 60 60 59 59 60 61 61
32 34 46 48 48 45 41 34 42 35 32 28 32 36 43 47 48 50 46 44 41 42 42 43 43 44 44 45 47 49 61 62 63 62 61 60 60 59 59 59 60 61 61 60
38 31 42 45 48 45 41 44 29 28 24 22 29 31 31 40 44 48 42 39 39 40 41 41 41 42 44 44 46 48 53 61 62 61 60 60 60 59 59 59 57 58 57 58
38 33 33 41 36 34 36 37 35 35 32 25 22 24 39 41 44 41 40 38 37 38 38 39 40 41 42 44 44 46 49 59 60 60 60 59 59 59 58 58 57 57 57 58
38 32 26 30 41 42 39 35 35 27 26 29 28 27 42 41 42 41 39 39 38 38 37 38 39 39 39 41 43 44 45 49 55 60 59 59 59 59 59 57 57 58 57 57
36 29 22 26 33 38 34 37 38 35 32 26 25 28 44 43 41 40 37 37 37 36 36 36 37 36 37 38 40 41 42 45 49 57 59 58 59 60 60 60 59 59 57 58
41 31 28 20 27 31 28 32 35 32 20 24 27 30 39 41 40 38 38 38 36 35 35 35 34 34 35 36 37 39 40 43 46 49 53 56 58 58 57 56 57 56 55 53
34 26 29 30 31 31 30 30 32 30 31 25 30 32 40 37 36 35 38 38 36 34 33 33 33 33 34 34 36 38 40 41 44 44 44 45 49 51 50 49 48 48 47 47
31 25 28 27 30 30 28 32 33 33 34 34 36 35 39 38 37 34 35 35 33 32 32 32 33 33 33 33 34 36 38 39 42 41 40 41 42 43 42 42 42 42 41 41
28 23 22 21 30 29 24 30 31 34 37 37 30 38 37 33 31 31 32 32 31 31 31 32 32 32 33 33 33 34 36 38 39 39 38 38 38 38 38 38 38 37 37 39
25 24 22 19 25 14 31 35 33 34 34 36 37 35 35 31 31 31 32 31 30 31 31 31 31 32 32 33 33 34 35 35 35 35 36 37 36 34 35 35 35 35 35 35
33 27 18 15 17 27 32 31 29 29 29 33 33 33 32 31 33 29 32 32 31 31 32 31 32 32 32 32 33 33 32 33 33 32 33 33 35 33 34 32 32 33 33 33
32 33 26 24 13 12 24 32 37 33 25 31 31 31 34 33 30 25 31 32 31 32 32 32 32 32 32 32 32 32 30 30 29 31 31 33 33 33 32 32 32 32 32 31
26 26 22 22 19 24 28 32 34 24 24 30 30 30 31 27 28 30 31 31 31 31 31 31 31 30 31 33 31 28 27 26 28 30 30 31 31 32 32 32 32 31 31 30
26 24 24 26 22 20 31 32 25 29 31 30 30 29 28 28 28 27 27 27 28 26 28 28 28 29 31 32 31 28 27 28 28 28 28 28 29 30 30 30 30 30 29 28
24 26 24 25 23 31 31 30 32 33 31 30 30 29 28 25 22 22 23 22 23 25 26 28 27 28 29 31 31 27 28 28 28 27 26 27 27 27 28 28 28 27 28 27
31 33 28 27 28 28 31 31 32 31 29 29 29 28 26 21 21 20 20 20 20 22 23 25 26 25 26 28 30 30 30 30 28 26 26 26 26 26 27 27 27 26 26 25
29 31 28 26 29 30 30 31 31 30 30 29 29 28 25 23 21 23 22 21 20 19 22 22 22 23 23 26 27 29 32 30 28 27 26 25 25 25 26 26 26 26 26 26
31 27 25 22 29 28 28 31 32 30 28 28 27 26 25 24 21 19 19 21 21 19 20 20 20 21 22 23 24 26 29 30 30 28 27 25 25 24 24 25 26 29 29 29

GFSCGP_sfc_temp_099.txt.gz
Temp
51 46 41 46 49 49 47 44 43 48 52 48 49 51 55 59 58 58 58 57 57 58 60 62 62 63 62 62 62 62 61 64 70 71 70 67 66 68 69 70 69 69 68 66
46 42 49 51 49 48 46 43 43 48 50 48 51 50 55 57 57 58 57 56 56 56 59 60 60 60 59 59 60 59 60 62 64 73 74 72 69 68 70 69 67 68 67 66
44 48 52 49 46 43 44 42 42 44 49 51 48 48 50 55 54 55 56 56 55 55 55 56 56 57 57 57 57 58 58 59 61 64 74 72 69 67 65 66 65 67 68 66
46 53 48 47 45 47 40 48 48 45 43 40 49 38 47 51 52 53 54 53 55 55 55 55 54 54 55 55 55 54 56 58 61 64 70 70 67 66 69 69 67 65 65 64
44 46 45 43 46 48 45 50 47 46 42 41 43 40 45 48 48 52 53 54 53 54 53 52 52 53 53 52 51 51 53 55 58 63 68 71 67 70 72 70 65 64 66 64
48 53 50 49 51 51 53 48 46 44 42 34 42 42 42 48 50 51 52 52 51 50 50 51 52 50 48 49 49 49 50 51 55 62 67 69 68 69 67 67 64 67 66 63
44 47 52 53 48 50 50 45 35 32 31 33 41 39 46 51 51 51 49 49 48 48 47 47 47 45 44 45 45 46 48 49 53 55 69 68 67 69 68 68 67 67 66 64
37 34 44 50 48 46 44 45 37 27 29 34 40 36 44 51 51 49 48 47 46 45 45 45 45 44 42 43 43 44 45 47 51 53 67 67 65 64 67 68 68 68 67 66
37 35 46 48 49 48 43 40 44 37 37 34 40 43 48 49 45 46 45 44 42 42 43 43 44 44 41 41 41 42 44 46 50 53 65 65 63 62 63 67 68 67 65 64
40 33 41 46 49 48 45 46 35 36 28 27 35 37 39 39 40 43 43 41 42 42 42 43 42 42 40 40 41 42 43 45 49 52 63 62 63 63 62 63 62 63 63 61
41 39 36 42 39 36 40 39 37 38 35 29 28 33 41 40 40 40 40 41 41 41 41 41 41 41 40 40 40 40 42 44 47 48 59 61 61 60 60 61 63 62 61 60
39 37 32 33 41 43 41 36 36 31 28 30 30 32 44 42 42 42 40 41 40 41 41 41 40 40 38 37 38 38 40 41 45 47 52 59 60 61 61 60 62 61 60 60
40 34 28 30 36 40 35 37 37 35 33 26 26 33 43 41 40 39 37 38 39 39 39 40 39 37 36 36 36 37 39 39 43 45 45 47 48 57 60 60 60 60 59 59
43 34 31 28 30 34 31 33 35 32 25 27 31 35 42 44 43 40 38 37 38 37 36 37 37 35 35 36 36 36 37 38 40 42 42 41 43 44 50 60 60 60 60 60
38 30 32 34 33 33 32 33 33 30 32 26 33 33 38 42 43 37 37 37 36 35 34 35 34 34 34 35 35 35 36 36 38 38 39 39 41 41 41 46 45 57 54 52
35 28 31 28 33 33 30 33 33 33 33 32 34 33 43 45 39 34 33 33 32 32 33 33 34 34 33 33 33 33 34 35 37 35 36 39 39 39 37 38 39 41 43 43
32 29 26 22 30 30 25 31 33 34 36 35 28 36 42 34 33 32 31 32 31 31 32 32 32 33 32 32 33 32 32 33 35 34 35 36 37 37 38 37 36 34 36 37
30 29 27 24 26 15 29 35 35 30 34 33 33 35 40 36 31 32 32 31 30 31 31 32 32 32 32 33 32 34 33 32 31 33 33 33 35 35 36 35 33 32 32 34
36 31 24 21 22 28 29 30 28 27 28 29 28 32 30 30 30 29 31 31 30 30 31 30 31 31 31 31 32 32 32 32 31 30 30 31 32 31 32 32 32 32 32 32
34 35 28 23 17 16 24 32 36 33 24 30 29 28 30 30 28 26 29 30 29 30 30 30 31 30 30 30 31 30 29 29 28 29 30 31 31 30 30 30 31 32 32 31
26 26 23 23 22 25 28 31 34 22 22 29 28 27 31 25 26 27 28 27 28 29 30 31 31 29 30 30 30 27 28 26 28 30 30 30 31 30 30 30 30 30 30 30
26 25 24 26 21 18 31 32 25 27 30 29 27 27 25 25 25 24 24 24 25 26 28 30 29 29 31 32 32 28 26 28 28 29 29 28 29 30 31 30 30 30 30 29
24 26 25 25 24 30 31 29 30 30 28 28 27 26 25 23 22 22 22 22 22 24 27 30 29 30 30 31 31 29 29 30 30 28 27 29 29 30 31 30 30 31 31 30
31 32 27 26 28 29 30 30 30 29 28 27 27 26 25 22 21 20 21 21 21 22 24 27 28 28 27 29 30 30 33 34 32 30 29 29 29 29 31 32 32 31 31 31
31 32 28 26 28 29 30 30 30 28 28 27 27 26 25 24 22 23 22 21 21 21 22 24 24 25 24 28 28 30 31 34 32 31 30 30 30 29 29 29 30 31 31 32
33 27 27 25 30 30 28 30 31 28 27 27 26 25 26 25 22 22 21 22 22 21 21 21 21 21 22 25 25 27 30 33 32 31 30 28 30 30 30 30 28 29 30 31

GFSCGP_sfc_temp_105.txt.gz
Temp
63 54 51 57 60 60 58 56 57 65 73 67 64 65 71 74 74 74 75 76 76 76 77 78 76 76 76 76 75 74 72 73 74 74 75 77 78 83 85 85 85 84 82 79
54 47 58 62 59 55 55 54 54 60 66 65 63 63 69 73 73 75 75 75 74 73 74 73 74 74 72 71 71 70 70 71 71 72 73 74 76 80 84 85 83 83 79 76
54 56 58 54 51 43 46 47 52 48 55 64 62 59 64 71 74 76 75 76 74 71 70 71 71 71 70 69 67 67 66 66 68 68 69 71 74 75 76 81 81 82 81 78
54 61 55 50 46 46 37 51 53 51 51 46 63 47 62 68 67 69 70 70 71 70 69 70 69 69 68 68 67 65 64 64 65 65 64 62 66 71 79 81 83 80 80 75
49 50 49 47 48 50 44 51 48 51 49 51 53 51 59 66 62 64 67 69 68 67 67 67 67 67 69 67 65 63 62 61 62 61 59 57 58 66 74 78 82 80 77 74
46 51 51 52 53 48 47 45 48 51 50 38 45 49 54 58 63 65 66 66 64 64 66 67 68 67 66 65 63 60 59 58 58 54 53 52 53 57 66 75 79 80 76 71
44 45 47 52 45 48 44 37 30 29 32 35 53 49 51 60 67 66 62 63 62 64 64 64 63 63 62 60 59 56 54 53 52 49 49 50 52 54 60 67 74 78 72 67
36 35 46 50 46 43 43 39 33 26 28 35 48 41 46 60 64 62 63 62 62 62 62 62 61 60 59 58 56 51 50 49 49 46 46 49 51 54 60 67 73 75 74 71
41 42 57 57 56 54 42 40 50 40 44 40 41 46 51 55 55 58 58 59 59 60 60 59 60 58 57 55 52 49 49 49 46 44 44 46 49 53 63 70 74 74 74 73
45 38 53 56 58 58 52 54 39 40 30 32 43 43 43 46 51 56 55 56 57 59 58 58 58 57 56 54 52 49 49 46 44 43 43 46 48 52 64 72 73 74 74 73
49 46 43 51 49 44 49 43 44 43 40 34 34 37 48 49 53 53 54 55 55 56 55 56 56 57 55 54 52 48 46 44 42 41 42 44 46 49 54 68 72 73 74 73
51 46 39 45 51 53 51 49 46 34 35 37 39 39 52 54 55 55 54 54 55 55 54 55 55 55 53 51 50 48 44 43 42 40 41 42 44 46 48 51 60 70 71 70
50 42 37 39 46 51 48 50 49 47 45 38 34 37 54 54 55 58 57 55 55 53 52 52 53 52 50 48 47 46 42 40 41 39 39 40 41 43 44 45 49 61 66 65
47 45 42 35 39 47 41 45 48 44 35 39 42 46 49 53 53 55 55 53 53 49 47 47 49 49 48 47 46 44 42 38 38 38 37 36 38 40 42 42 44 45 51 62
47 38 43 44 44 44 43 44 45 42 43 36 42 44 49 50 50 49 50 49 47 43 43 43 44 44 44 44 43 43 41 40 36 35 34 33 35 38 40 40 40 41 40 43
46 39 41 39 43 43 40 44 45 45 45 45 45 44 49 51 51 44 42 42 41 39 39 40 41 40 40 39 40 40 40 39 37 33 33 35 36 35 36 37 38 37 38 37
42 39 37 35 39 39 35 41 44 46 49 46 39 43 46 42 36 35 37 38 37 36 36 36 37 37 37 37 38 38 39 39 37 33 33 33 33 33 33 35 35 35 36 36
40 39 38 36 36 25 38 45 42 39 43 43 42 42 41 36 35 36 36 34 34 35 33 34 35 36 35 36 38 39 40 37 35 33 33 33 33 32 32 32 32 32 33 33
48 42 35 30 32 37 38 38 31 30 32 34 36 39 40 37 37 31 35 34 32 32 32 31 34 35 34 33 36 37 36 36 34 32 32 32 33 33 33 32 31 31 30 30
44 45 37 35 28 25 31 40 45 38 29 36 34 35 36 37 31 28 32 32 31 31 32 33 32 32 33 32 35 34 33 33 31 31 31 33 33 33 32 32 32 32 31 29
34 35 33 34 31 29 35 42 43 25 26 33 32 31 34 31 30 29 30 29 30 32 32 33 34 32 32 35 34 32 32 31 32 33 33 33 34 33 33 33 33 33 32 32
34 33 33 37 29 24 40 40 29 29 34 33 31 31 29 30 30 28 28 28 29 30 33 34 33 33 37 38 37 34 32 33 34 34 33 33 32 33 34 33 33 33 33 32
30 32 32 31 29 33 37 32 34 36 34 31 31 30 30 28 27 27 26 27 28 29 33 37 36 35 37 37 37 35 37 40 38 36 33 33 33 33 33 32 31 31 33 32
38 42 33 33 32 33 33 36 35 36 33 33 33 31 29 26 26 26 26 27 27 28 31 35 36 35 34 36 37 38 40 43 41 38 37 37 36 34 33 33 33 30 29 31
43 42 35 30 32 35 34 35 35 33 33 31 31 32 31 29 28 30 28 28 28 28 30 32 32 33 33 35 35 37 39 41 40 38 37 38 37 36 34 31 30 29 29 29
45 34 33 33 38 36 32 34 35 32 31 32 33 32 33 32 29 29 28 30 29 28 28 28 28 29 30 31 31 33 36 38 37 36 37 35 37 37 36 34 31 29 29 29

GFSCGP_sfc_temp_108.txt.gz
Temp
63 54 49 55 59 59 57 55 53 59 65 62 60 60 68 73 74 72 72 74 76 77 76 76 74 73 72 70 69 68 67 66 66 67 66 67 68 70 71 77 78 77 75 75
56 51 59 62 60 57 55 51 49 55 61 60 56 52 55 71 72 74 73 74 74 76 74 73 72 71 69 68 66 65 65 64 64 65 65 65 64 66 68 70 71 76 76 74
51 57 64 60 55 52 52 50 48 47 54 56 53 47 52 65 72 74 76 77 76 72 70 70 70 68 67 65 64 64 63 62 62 63 63 64 64 65 66 67 69 72 76 75
54 62 58 57 53 54 44 55 52 48 43 35 51 33 48 59 64 69 73 73 70 69 70 69 67 66 66 63 63 62 61 61 62 60 58 56 56 56 59 63 68 72 75 75
50 54 52 50 53 57 48 48 46 43 39 40 41 37 46 58 56 62 66 67 66 65 66 65 65 65 65 63 60 59 58 58 57 57 55 52 51 54 57 60 62 66 70 74
51 55 51 51 54 55 49 42 43 43 39 28 40 39 39 49 58 64 65 63 63 64 64 65 64 63 61 60 58 56 54 53 54 54 51 49 47 49 51 53 56 61 67 70
49 48 54 54 48 53 46 35 29 27 28 30 47 40 41 54 55 64 56 59 62 62 61 61 59 58 57 56 55 53 52 51 53 51 48 47 47 47 48 50 53 56 60 65
40 38 49 53 49 46 44 37 32 23 27 34 45 32 39 51 57 56 54 56 60 59 59 58 58 56 56 55 53 51 50 48 49 48 46 46 46 47 49 50 53 55 59 65
42 42 56 55 54 52 40 33 44 35 35 30 36 43 48 51 52 52 51 54 56 57 56 56 57 56 55 53 52 49 47 46 46 45 44 43 45 46 47 49 52 56 60 65
45 38 49 54 55 54 48 51 32 32 25 25 38 39 36 45 47 52 51 52 54 55 55 55 55 54 53 52 51 49 46 44 44 44 43 43 43 46 47 49 51 58 63 68
47 46 43 49 47 47 48 44 39 36 39 29 30 31 40 39 43 48 52 53 53 53 53 53 54 54 51 51 49 47 45 42 40 41 42 42 42 43 45 46 48 49 53 68
51 46 38 43 55 56 53 47 41 32 30 34 33 33 44 42 47 54 54 54 54 52 51 51 52 51 49 47 47 45 43 41 39 39 41 40 40 41 43 43 45 48 48 54
50 42 34 35 45 51 47 49 50 45 43 35 31 35 44 50 54 54 52 52 51 50 48 48 48 46 46 45 44 43 41 40 39 38 38 38 38 38 39 41 42 45 45 48
49 45 39 32 35 46 42 47 49 45 33 36 38 39 44 48 50 49 50 50 48 46 45 44 43 43 43 42 42 42 40 40 38 37 36 36 36 37 37 39 40 41 43 43
48 37 43 45 46 46 45 45 47 43 43 36 41 43 42 45 45 46 47 47 44 42 42 41 40 39 39 39 39 41 40 38 38 36 34 34 36 37 36 36 37 38 39 40
46 35 41 38 45 45 41 45 46 45 46 45 45 43 45 43 43 41 41 41 39 39 38 38 38 38 36 36 37 39 38 37 36 35 34 35 35 35 34 34 34 34 35 36
41 38 36 32 42 40 33 41 44 45 48 45 38 39 44 36 35 34 36 37 35 35 34 34 35 35 34 34 36 36 36 37 34 33 34 34 34 33 33 33 32 31 31 33
40 39 38 34 36 24 38 45 44 39 39 41 41 41 39 36 34 34 35 34 32 33 32 33 33 34 33 34 34 35 36 35 33 33 33 33 33 33 33 33 32 30 30 29
48 41 34 30 30 36 39 39 32 31 31 36 36 39 38 36 34 30 33 33 31 31 32 31 32 33 33 32 34 33 34 34 34 32 32 32 33 32 33 32 32 32 31 29
46 46 36 33 27 25 31 42 46 40 27 35 34 33 35 36 28 25 30 32 31 32 32 32 32 32 32 32 34 33 33 32 31 32 32 32 33 32 32 32 32 32 32 32
34 36 32 32 31 28 36 43 44 26 25 32 32 30 34 29 29 28 31 30 31 32 32 33 33 32 32 33 33 32 33 31 33 34 33 33 33 33 32 32 32 32 32 32
34 32 31 35 31 25 39 41 32 31 34 32 31 31 28 29 28 28 28 28 29 30 32 33 31 31 35 38 37 34 33 32 34 34 34 32 32 32 32 30 30 31 31 30
30 32 31 29 28 33 36 32 35 37 33 31 30 31 31 28 27 28 26 27 27 29 30 33 35 35 36 37 37 34 36 38 36 35 34 34 32 31 31 29 27 27 28 28
40 43 33 32 32 32 33 35 36 36 33 33 33 32 30 26 27 26 26 27 27 28 31 35 34 32 31 33 34 35 38 40 39 35 35 35 34 31 30 31 29 27 26 25
43 43 35 30 32 33 34 34 34 33 34 33 33 32 30 29 28 28 28 27 27 28 29 31 30 29 29 30 31 34 36 37 36 35 33 34 34 34 30 27 27 27 26 27
44 35 34 34 37 36 32 34 35 32 31 33 33 32 33 31 29 29 28 29 28 27 28 27 27 26 26 27 27 29 33 34 33 32 32 31 32 32 32 32 28 30 30 30

GFSCGP_sfc_temp_111.txt.gz
Temp
54 43 39 45 49 50 49 47 46 51 57 53 51 52 51 57 59 60 64 64 63 66 65 65 64 63 62 61 60 59 58 57 58 57 56 58 57 60 61 64 66 66 68 70
46 42 51 54 53 51 50 46 45 50 56 52 49 46 52 56 57 60 63 64 65 64 64 63 62 60 58 57 57 57 56 55 56 56 56 55 56 57 60 62 64 65 66 65
44 49 57 54 51 50 49 45 45 45 50 51 46 43 48 56 60 63 66 70 70 63 62 60 60 57 56 54 53 54 54 54 54 54 54 54 54 54 55 57 58 60 63 64
47 55 53 51 49 50 43 51 45 43 39 32 43 30 43 49 52 59 62 64 61 60 61 59 58 55 54 52 53 52 52 52 54 52 50 47 46 46 50 51 55 56 59 60
46 49 48 43 47 48 43 46 42 41 36 37 37 32 40 49 49 55 57 60 58 57 57 55 54 54 54 52 49 50 51 51 51 50 48 46 44 46 49 50 50 52 55 58
49 51 48 45 50 49 48 42 41 39 37 27 37 36 35 42 48 49 55 57 57 55 55 55 56 55 51 49 47 47 48 49 49 48 47 45 44 45 45 46 47 50 52 53
44 45 48 52 43 47 40 35 26 22 26 24 44 37 37 47 52 52 51 50 54 55 52 52 52 51 50 47 46 49 46 44 46 46 46 45 43 45 44 46 47 48 50 51
35 31 46 50 45 40 37 35 26 20 22 28 39 30 37 48 48 47 48 48 50 52 53 51 50 48 47 48 46 44 43 41 42 44 44 44 44 44 45 46 48 48 49 53
36 38 51 53 51 47 39 32 41 31 32 25 31 39 46 42 44 45 46 47 47 50 50 50 49 47 47 46 45 43 43 40 40 41 41 42 43 43 43 44 46 48 51 53
44 33 48 52 51 49 43 45 30 31 23 22 33 35 29 34 35 40 41 46 47 47 49 49 47 46 46 45 44 42 41 42 40 40 40 41 41 42 42 43 45 46 48 50
46 40 39 47 42 39 41 38 38 36 33 25 26 30 34 32 37 38 41 45 46 46 46 46 45 44 44 43 42 42 40 40 38 38 39 39 39 40 41 41 43 43 45 48
46 41 33 39 49 52 49 42 41 28 28 30 30 30 40 41 41 43 46 45 45 44 43 43 42 42 41 40 41 41 40 39 39 39 38 38 39 39 39 39 41 42 43 45
43 33 29 33 40 45 42 45 43 40 36 30 26 29 44 44 46 47 43 43 43 42 40 39 39 38 38 39 39 39 39 38 38 38 37 37 37 37 37 37 38 39 40 42
47 41 35 28 32 37 36 43 46 40 27 30 33 34 38 43 41 42 41 41 40 39 39 38 36 37 37 38 38 38 37 37 36 36 36 35 36 36 36 36 36 36 38 38
43 33 39 43 43 44 43 43 45 41 40 30 37 33 36 37 37 38 40 40 38 36 36 36 36 35 35 36 36 37 36 36 36 35 35 34 36 36 36 35 34 34 34 35
43 31 37 34 43 43 38 43 42 43 43 42 37 30 37 38 38 35 36 36 34 34 34 34 35 34 34 34 34 34 34 34 35 34 33 34 35 35 35 35 33 32 32 32
36 32 32 26 38 38 29 36 40 40 37 39 29 34 36 33 32 30 32 32 32 31 32 32 32 31 32 31 33 32 32 34 34 33 33 34 34 34 33 34 34 32 30 31
36 34 32 28 31 21 34 42 41 34 33 36 37 35 34 30 30 30 31 30 30 31 29 30 30 31 31 32 33 33 33 33 32 32 32 33 32 32 33 33 32 32 32 30
44 35 28 24 25 32 35 37 30 27 27 32 32 33 31 30 28 27 31 31 30 29 31 27 31 32 33 32 33 33 32 33 33 31 31 31 31 30 31 30 31 32 31 30
43 40 28 27 21 17 26 39 41 37 20 31 30 29 31 30 24 22 30 31 29 30 30 31 32 31 31 32 33 32 32 31 31 32 31 32 32 30 29 29 29 30 30 29
30 29 27 25 22 26 36 41 43 19 20 30 31 28 29 23 23 26 29 26 28 31 31 32 31 30 31 32 32 31 32 31 32 33 32 31 31 30 28 28 28 28 29 28
29 26 25 27 21 18 34 36 28 26 31 30 29 27 24 25 26 26 26 25 28 30 31 31 29 28 31 34 34 31 30 32 33 32 32 30 30 30 29 27 27 27 26 26
23 26 25 26 24 31 34 30 34 35 29 30 29 29 28 26 25 24 24 25 26 28 29 31 30 30 31 32 32 30 32 34 33 32 31 29 29 28 28 26 25 25 25 23
35 39 26 27 29 30 32 35 34 34 31 31 32 30 28 24 23 23 25 25 25 26 28 29 28 27 26 28 29 30 32 35 34 31 30 31 30 27 27 27 26 25 23 23
35 37 30 28 30 32 32 33 32 32 32 31 29 27 26 26 25 25 25 24 23 23 25 26 24 24 23 25 25 27 28 31 30 30 29 29 29 29 27 26 25 25 26 27
37 30 25 26 31 31 29 32 34 31 30 31 30 29 29 28 26 26 23 24 24 22 23 21 21 21 21 22 22 24 26 29 28 28 28 28 27 27 28 27 23 30 30 30

GFSCGP_sfc_temp_114.txt.gz
Temp
51 42 37 43 44 46 44 42 40 46 51 49 48 49 52 56 55 56 58 60 62 58 60 59 58 58 57 56 55 55 53 53 53 53 52 53 52 53 55 57 60 60 60 61
43 39 48 50 48 46 45 41 41 48 52 49 45 45 51 54 55 57 57 60 59 59 59 56 54 53 52 52 52 52 51 51 51 51 50 49 50 50 53 55 55 57 57 57
40 46 53 50 46 44 44 42 43 43 44 45 43 39 46 53 55 58 59 60 62 57 55 53 52 50 49 48 49 49 49 49 50 50 49 48 48 49 49 50 50 53 54 55
44 52 49 48 46 47 39 45 44 41 37 31 41 29 42 47 49 52 55 53 53 53 53 52 49 47 47 46 48 48 50 49 50 48 46 44 42 42 45 46 49 50 52 53
42 44 44 44 46 47 41 44 42 39 33 31 36 28 39 48 45 49 49 48 47 49 49 49 48 47 46 46 45 47 46 46 47 46 45 43 42 43 44 47 48 49 50 52
46 49 49 47 48 48 45 41 39 37 33 22 34 32 30 38 44 47 49 48 48 48 49 49 49 48 46 45 45 45 44 42 44 45 43 45 43 43 43 44 46 48 50 51
43 43 47 50 41 44 39 34 27 21 25 23 38 33 34 41 43 47 43 43 45 47 46 46 45 44 44 44 43 45 42 41 40 41 41 43 44 43 43 43 44 45 46 47
33 31 42 48 44 39 36 35 26 19 21 24 37 25 33 39 39 41 44 44 43 44 45 44 44 44 43 43 42 40 41 40 40 40 40 42 43 42 42 42 43 44 46 48
34 36 48 48 48 46 37 29 39 31 30 21 29 34 40 37 35 36 36 38 38 40 42 42 43 42 42 42 40 39 39 40 39 38 39 40 41 41 40 41 43 44 45 47
42 35 45 49 49 47 42 43 30 29 21 21 28 29 28 33 33 35 34 33 34 38 39 40 41 41 41 41 41 40 40 38 39 39 39 39 39 40 41 41 40 41 43 44
43 39 37 46 41 38 38 37 36 34 29 23 22 26 35 33 37 35 35 35 39 39 40 39 39 40 40 40 40 39 37 37 37 38 38 38 38 39 39 39 39 39 40 42
41 39 32 38 47 48 46 41 39 26 25 28 26 29 39 40 42 41 40 39 39 38 38 38 38 38 38 38 39 38 35 35 36 38 37 37 38 38 37 37 37 38 38 40
41 34 28 30 39 43 39 43 43 39 34 28 23 27 41 42 42 42 38 39 39 38 36 36 37 35 36 37 37 36 34 34 36 37 37 36 36 36 36 36 36 36 36 37
44 35 31 28 33 37 35 41 42 37 27 28 29 32 37 36 37 38 37 36 35 35 36 35 34 35 35 36 35 35 34 35 35 36 35 35 35 36 36 36 35 35 35 35
37 28 34 40 41 41 40 40 42 39 37 29 34 32 34 35 34 35 36 36 34 33 34 34 32 33 33 34 33 34 34 35 35 34 34 34 35 36 36 35 35 35 34 34
39 28 31 31 41 41 37 41 40 41 39 34 34 31 38 37 36 34 34 33 31 32 32 32 32 32 32 33 33 33 33 33 34 33 33 33 34 34 34 34 34 33 33 33
33 30 29 27 35 35 28 34 38 35 35 36 28 33 34 30 30 31 31 32 30 29 30 30 31 31 32 31 32 32 33 33 32 32 32 33 32 31 31 32 33 31 30 30
32 30 30 26 30 20 32 40 41 33 31 35 33 33 34 30 29 30 31 30 30 29 29 30 30 31 32 32 33 33 33 32 32 30 30 31 30 30 30 30 30 29 30 29
40 32 27 24 25 30 34 36 31 29 26 31 32 30 28 28 29 27 31 31 28 29 29 29 31 31 31 31 33 33 32 32 32 30 29 30 29 27 28 27 27 29 28 28
41 39 29 26 22 17 26 37 40 36 19 29 30 32 28 28 21 23 29 30 29 28 31 30 27 25 27 29 31 32 32 32 31 31 30 30 30 27 25 25 26 26 27 25
31 29 27 26 23 25 34 40 40 21 22 29 27 24 28 26 21 26 27 28 29 31 30 28 28 27 27 30 30 29 30 28 30 32 30 29 29 28 27 26 26 25 25 25
29 27 25 26 20 18 33 36 28 24 28 27 24 24 23 25 25 25 24 24 26 27 28 28 26 26 29 31 30 28 27 29 30 30 30 28 28 28 28 25 25 25 24 23
24 26 24 25 21 28 32 28 30 30 27 28 25 25 24 23 23 22 21 18 23 25 25 28 27 26 27 28 27 26 29 32 30 29 28 27 26 26 26 25 25 25 25 24
33 35 24 25 28 29 31 33 34 33 28 30 30 28 27 23 19 19 19 20 21 23 23 26 25 23 23 25 26 27 28 32 31 28 28 28 28 26 26 26 26 25 24 23
33 34 28 26 28 30 31 32 32 31 31 30 29 27 24 23 22 23 22 21 18 19 21 23 22 21 21 24 24 24 26 29 29 29 28 27 28 26 26 26 26 26 25 26
34 28 24 22 31 29 28 31 33 30 28 26 26 25 27 26 23 23 21 22 21 20 20 19 19 19 19 21 21 22 24 27 27 27 27 26 26 26 26 26 25 29 29 29

GFSCGP_sfc_temp_117.txt.gz
Temp
48 40 37 43 42 43 41 38 36 40 47 45 45 47 50 52 51 52 55 55 53 51 53 53 53 51 50 50 50 50 49 49 50 48 46 46 46 48 50 52 53 54 54 55
42 37 47 47 45 43 42 38 38 43 48 45 42 44 50 50 50 53 54 51 51 51 50 51 49 47 47 46 47 48 47 47 47 47 46 45 44 46 48 49 50 51 51 51
39 45 50 47 43 41 41 38 39 39 41 43 40 38 44 52 52 54 55 55 54 51 48 48 47 46 45 45 46 46 46 46 46 46 46 44 45 45 45 45 47 49 50 51
42 50 47 44 42 43 35 45 43 40 36 28 39 27 42 44 46 48 48 46 47 47 47 46 44 45 45 44 45 44 44 44 46 46 43 40 39 40 42 43 46 48 50 50
40 43 42 40 44 46 40 44 41 38 32 29 32 27 32 41 39 41 44 44 43 44 44 44 43 44 45 44 43 42 42 42 42 42 42 42 42 44 45 46 45 46 49 51
42 46 46 44 47 46 45 41 38 34 31 21 32 31 27 34 35 40 45 45 44 44 44 44 45 44 42 43 43 42 41 41 42 41 41 41 42 42 42 43 43 45 46 48
40 42 46 49 41 42 38 38 29 23 22 22 35 30 31 35 36 38 38 38 39 39 39 39 41 41 40 40 40 42 40 38 39 39 39 42 42 42 41 41 41 42 43 45
32 31 40 47 45 38 35 36 28 20 20 23 34 24 31 37 39 39 38 37 37 35 36 37 37 39 41 40 39 39 39 38 38 38 39 40 41 41 41 41 41 42 42 43
33 34 45 46 46 45 35 30 37 30 29 22 27 31 36 37 36 36 36 36 35 34 34 34 34 36 39 39 39 38 38 37 38 38 39 39 40 39 39 40 41 41 42 43
41 33 44 46 47 44 40 42 29 29 21 20 26 28 24 31 33 35 34 34 34 35 35 35 34 35 37 39 39 38 37 36 37 38 38 38 39 39 39 39 38 38 39 40
42 38 36 43 39 36 37 33 34 33 27 22 21 23 31 34 36 35 35 35 34 33 34 34 34 36 37 38 37 35 35 36 36 38 38 37 38 38 38 37 37 37 37 38
42 37 33 37 43 47 44 40 35 23 23 29 21 22 41 39 40 38 39 36 35 35 34 34 34 36 37 37 35 34 34 34 36 37 37 37 37 37 37 36 36 36 36 37
40 34 26 30 35 40 36 41 41 37 33 28 22 26 41 42 40 40 36 36 36 36 35 35 35 35 34 35 33 33 34 34 36 37 36 36 36 36 36 36 36 36 35 36
44 35 32 28 29 34 32 38 41 37 27 28 28 32 36 37 36 35 34 33 33 33 34 34 33 33 34 34 33 33 34 34 35 35 34 33 34 34 35 35 34 34 34 34
38 30 32 34 36 35 33 36 38 37 35 29 32 31 36 35 35 34 34 33 33 33 32 32 31 32 33 33 33 33 34 33 34 33 33 32 33 33 34 34 33 32 32 33
35 28 29 29 37 39 34 40 40 40 40 38 35 32 38 37 36 33 32 32 31 31 31 31 31 32 32 32 31 32 32 31 32 31 31 32 32 31 31 31 30 31 30 30
33 30 29 27 33 33 28 33 40 34 34 34 28 33 35 31 31 31 30 31 27 29 29 30 31 31 31 31 32 31 31 33 32 31 31 30 28 28 28 29 29 28 28 28
30 30 29 26 28 21 30 38 39 33 32 33 32 33 34 29 29 29 29 29 27 27 29 30 30 31 31 32 33 33 33 31 31 30 29 30 28 26 26 25 25 25 25 25
36 30 27 22 24 28 31 33 30 31 28 31 31 29 29 28 28 26 31 29 27 25 26 27 29 29 26 28 30 33 31 31 31 29 28 28 28 25 24 22 22 23 24 24
37 35 29 25 20 17 24 37 40 35 21 30 29 28 26 26 17 22 29 28 25 25 29 27 24 22 25 28 29 29 29 29 29 28 28 28 28 25 23 22 21 22 22 23
28 28 25 25 22 24 32 38 39 19 23 28 29 28 27 22 20 26 29 26 28 29 26 27 26 25 26 29 29 26 26 25 29 30 29 28 27 26 24 24 24 23 22 23
28 25 24 27 21 17 34 37 28 25 26 26 22 24 28 25 26 26 27 27 28 26 26 26 24 24 27 27 28 26 25 25 27 28 28 26 26 27 26 24 24 24 24 23
22 26 24 27 23 29 31 28 28 29 27 23 22 25 26 25 24 25 22 21 22 24 24 26 24 24 25 26 26 25 27 30 29 28 25 25 25 26 25 24 22 23 23 23
32 34 25 26 27 28 29 31 30 30 27 25 25 25 25 22 23 19 20 19 18 19 20 23 23 22 23 25 26 26 27 29 29 28 27 28 26 26 26 26 25 22 23 23
33 34 28 26 28 30 30 29 29 28 29 28 28 26 23 21 20 21 20 18 18 15 20 22 22 22 21 23 23 23 26 28 29 28 27 26 26 25 24 25 24 24 23 25
34 28 25 24 31 29 29 29 31 28 28 28 25 24 25 24 22 22 19 20 20 18 19 18 19 19 19 20 20 21 24 27 26 26 25 24 24 23 24 23 21 26 27 28

GFSCGP_sfc_temp_120.txt.gz
Temp
46 38 35 41 41 41 40 36 33 37 45 42 42 44 46 50 49 48 50 49 48 46 47 47 47 46 46 47 47 47 46 46 47 46 45 46 45 47 47 49 49 50 50 51
40 35 43 45 43 42 40 35 35 40 45 44 41 40 46 47 47 46 44 46 46 45 45 46 45 44 43 43 44 44 44 45 45 45 45 44 44 46 46 46 47 48 49 49
36 42 48 45 41 39 38 36 36 37 40 40 38 35 39 45 46 47 44 44 45 42 42 44 45 43 43 42 43 43 43 43 45 45 45 45 43 44 44 44 45 47 49 49
40 47 45 41 40 41 32 42 41 38 34 27 38 26 35 38 40 45 42 42 42 43 44 44 42 42 41 43 44 43 44 43 44 43 43 42 40 41 44 44 44 46 48 48
39 40 40 38 42 43 38 43 40 38 31 29 30 26 29 36 36 40 40 40 39 39 40 39 40 41 41 41 41 42 43 41 42 41 42 41 40 42 44 44 44 44 45 48
41 44 44 43 44 44 44 40 37 33 30 24 31 30 26 32 34 36 37 37 38 38 38 39 40 40 40 41 40 41 41 41 40 40 41 40 40 41 41 42 42 43 45 46
38 40 43 47 39 40 38 36 25 21 22 23 33 28 29 35 37 37 36 36 37 37 37 37 37 37 38 39 38 39 38 37 40 40 40 40 40 40 40 40 40 41 41 42
30 29 38 44 44 37 33 36 30 20 19 22 32 23 32 38 39 39 39 38 38 36 36 35 35 35 36 38 38 37 37 37 38 39 39 40 40 40 39 40 40 40 40 40
31 32 41 44 43 44 35 34 37 30 29 24 26 31 35 38 36 37 37 37 36 35 35 35 35 36 36 36 37 35 36 37 38 38 39 39 39 39 38 38 39 38 39 40
40 31 42 43 45 42 39 41 29 29 23 21 25 26 25 31 33 34 34 34 35 36 35 36 35 36 36 37 36 35 36 36 37 38 38 38 38 38 38 38 36 37 38 38
40 37 35 41 38 34 35 33 35 33 30 22 21 23 30 34 35 33 34 35 35 34 34 34 34 35 36 36 35 34 35 35 36 37 38 37 37 38 38 37 37 37 37 37
41 37 32 36 42 44 42 38 36 28 24 27 20 22 39 38 38 38 37 37 36 35 33 33 34 35 35 34 34 34 35 35 35 37 36 36 36 37 36 35 35 35 35 37
40 33 28 27 34 38 37 38 40 38 34 28 21 26 41 41 40 40 37 36 35 33 32 31 33 33 34 34 34 34 34 34 35 36 35 34 34 34 34 34 34 34 34 35
43 34 33 28 30 33 31 35 38 37 29 30 30 29 34 37 38 35 33 31 30 31 33 31 33 33 33 34 33 33 33 33 34 34 33 32 32 32 33 33 33 32 33 32
37 32 32 34 35 36 34 34 35 34 35 29 32 32 36 38 36 32 31 31 32 31 31 30 31 32 32 33 31 33 31 31 31 31 30 29 31 31 31 31 30 31 30 30
36 28 31 29 35 36 32 34 33 34 34 33 34 32 38 38 35 31 30 30 29 29 31 31 32 32 31 32 32 31 31 31 31 30 29 29 29 29 28 28 28 27 27 28
32 30 28 26 31 29 28 33 34 34 34 35 31 35 34 31 31 30 30 31 29 30 30 30 30 30 31 31 31 31 30 31 31 30 30 29 28 27 26 26 25 24 24 25
32 30 30 27 28 21 30 34 37 35 34 34 33 33 33 32 31 30 32 29 27 28 29 29 29 30 30 30 32 31 31 31 30 29 28 28 27 26 25 24 22 22 22 22
35 30 27 24 24 28 29 32 28 28 29 31 31 31 29 28 29 27 32 29 24 24 29 28 29 27 26 27 29 30 30 30 29 28 27 27 26 23 23 21 20 21 21 22
35 35 30 25 18 15 24 33 37 34 23 30 31 29 27 28 23 19 27 27 25 24 26 25 24 25 26 27 29 28 27 28 27 26 26 27 27 24 22 21 21 22 15 21
29 28 26 24 22 24 31 36 38 21 24 32 32 30 28 22 21 23 25 23 25 26 25 26 25 23 25 27 26 22 24 24 26 28 28 27 26 26 24 22 21 21 19 21
28 25 24 26 21 16 34 35 28 27 27 28 27 29 24 26 27 25 23 26 24 24 24 24 23 23 25 26 28 24 21 22 26 26 27 25 25 26 25 21 22 22 23 21
25 24 21 26 22 26 30 29 29 29 26 23 24 26 26 25 24 25 24 22 20 20 23 25 23 24 24 24 24 23 26 29 29 27 24 25 26 25 24 22 20 21 22 21
29 31 22 25 25 27 29 30 29 29 27 25 27 27 27 24 20 18 19 19 14 17 21 22 22 22 22 24 26 26 27 28 29 27 26 26 25 24 24 24 24 22 21 20
29 31 27 25 27 29 30 30 28 26 26 25 26 26 24 22 20 21 19 17 16 14 17 21 21 21 21 22 23 23 25 27 28 26 26 24 24 24 22 21 22 22 22 23
32 29 27 26 32 30 28 29 29 26 25 25 24 23 25 24 21 20 18 20 19 16 17 17 19 19 19 20 20 21 24 27 26 24 23 22 22 21 21 20 19 25 26 26

GFSCGP_sfc_temp_126.txt.gz
Temp
62 59 57 64 63 62 57 56 56 61 63 57 58 60 64 64 62 59 59 57 56 54 57 58 57 58 60 59 58 56 52 50 51 56 55 56 57 66 66 66 64 64 64 63
55 53 64 59 58 56 56 54 55 59 59 56 59 58 59 58 54 54 54 53 51 52 54 55 57 57 56 57 56 55 52 50 50 51 51 57 57 63 64 64 63 63 61 61
57 59 59 57 55 54 55 53 54 52 57 60 55 57 53 55 53 52 51 52 51 49 50 53 53 55 57 56 56 57 55 51 50 50 52 54 58 60 59 60 61 59 59 57
57 63 56 56 55 56 52 57 54 51 50 48 55 45 54 56 52 52 52 49 50 50 51 50 53 50 53 53 53 55 52 55 54 53 52 52 56 56 56 58 57 57 57 53
55 53 53 53 55 56 53 55 53 52 50 49 51 45 56 56 52 52 52 48 48 48 47 48 47 47 48 48 48 49 53 52 51 51 48 49 50 52 56 56 53 53 53 53
57 59 58 58 56 57 57 52 51 51 50 39 50 48 56 51 54 54 52 50 49 46 46 45 46 47 47 50 51 50 50 50 50 46 48 48 46 45 47 48 48 50 49 49
53 52 57 59 53 55 55 50 42 40 39 40 48 46 52 56 54 54 52 51 47 47 44 43 45 47 49 48 49 50 50 50 49 47 45 45 43 45 44 43 42 43 43 44
44 41 53 57 56 52 51 51 43 32 38 43 46 40 51 54 54 53 54 52 48 43 42 44 44 45 45 46 45 46 47 47 48 46 45 46 45 44 44 43 41 41 42 43
45 46 56 55 58 57 48 43 55 44 45 37 46 53 47 48 45 48 49 47 43 42 43 42 44 43 44 46 43 42 44 45 45 45 44 43 42 42 41 43 43 41 41 43
52 44 53 52 56 57 52 57 39 42 31 32 44 47 46 39 38 44 45 43 41 42 42 44 48 45 44 44 43 42 42 41 42 43 43 42 41 41 42 43 41 41 41 41
56 50 47 50 48 49 47 46 47 47 44 36 36 42 49 45 49 45 47 46 41 42 45 46 48 48 45 44 43 41 41 41 40 41 42 41 41 41 41 41 40 40 41 40
54 50 43 47 58 59 58 52 50 37 35 39 37 39 56 55 56 54 52 47 43 46 45 47 48 47 44 42 42 41 40 40 40 41 41 40 40 41 41 40 40 40 40 41
52 44 38 42 47 52 49 53 53 50 46 36 32 42 53 54 56 55 51 43 43 44 45 47 46 44 42 40 40 40 40 40 41 42 41 41 41 41 40 40 40 40 41 40
50 47 41 38 41 45 36 43 48 45 34 39 42 46 54 51 51 49 46 44 43 43 45 47 44 41 40 39 39 40 41 42 43 42 41 40 41 41 41 41 41 41 41 40
49 40 44 47 49 48 45 45 47 44 44 37 44 46 54 57 54 51 49 46 42 43 43 44 42 39 39 38 39 40 41 42 43 41 39 38 40 40 40 39 39 40 41 41
48 39 43 41 47 47 44 48 49 49 49 48 48 46 57 60 58 51 47 42 41 41 42 42 41 38 38 38 39 39 40 41 42 39 38 38 38 39 37 38 38 39 38 38
42 40 37 33 43 41 34 43 47 49 52 50 43 52 60 56 52 48 46 45 42 40 39 39 38 37 37 37 39 39 40 42 40 38 37 36 35 34 34 35 36 35 35 36
41 39 38 33 36 24 46 53 52 50 51 53 53 54 56 55 55 52 50 46 42 40 39 38 37 37 37 38 37 39 41 40 38 36 34 35 34 32 32 32 30 31 31 30
47 41 31 29 32 40 45 48 40 39 43 53 50 54 54 49 45 39 45 45 41 39 36 34 37 36 35 35 38 37 37 37 37 33 32 31 31 29 30 29 30 30 30 30
45 44 36 34 27 25 40 53 52 48 35 54 52 52 42 40 34 39 40 40 36 34 34 33 32 33 32 33 36 35 34 34 30 32 32 34 31 29 28 29 29 30 30 29
32 32 28 30 29 36 47 48 49 32 38 48 50 48 42 38 40 36 36 32 32 33 33 34 33 30 30 32 32 31 32 30 32 33 32 31 33 30 30 30 30 30 29 29
36 33 30 31 27 25 46 45 37 41 42 45 44 44 39 34 33 31 30 30 30 30 31 32 31 31 36 38 36 30 29 31 32 33 31 29 30 31 31 30 30 30 30 29
32 37 36 37 39 41 48 43 42 44 44 43 42 41 37 31 29 30 29 29 29 30 31 34 35 36 39 40 40 36 35 35 33 32 29 29 30 30 32 31 30 31 30 29
45 46 39 36 43 43 43 43 45 44 44 43 43 40 37 29 29 29 29 28 29 30 34 38 38 37 36 38 38 38 38 39 37 35 34 34 32 32 33 34 33 31 29 29
44 43 41 38 39 40 43 44 46 42 42 42 41 40 34 31 30 30 29 29 29 30 33 37 37 36 35 37 37 38 38 39 36 35 34 34 33 32 31 29 29 30 27 27
43 38 38 39 47 46 43 46 44 39 39 40 39 36 37 36 31 32 30 31 31 30 33 33 33 34 34 36 35 36 38 38 36 34 34 32 33 32 32 32 29 25 25 25

GFSCGP_sfc_temp_129.txt.gz
Temp
67 62 60 66 69 69 67 63 64 70 73 65 63 66 71 75 71 69 69 67 64 61 63 64 63 64 65 64 63 62 60 59 60 60 61 64 61 60 61 63 65 66 65 64
61 57 69 73 67 65 63 61 62 68 70 63 63 64 71 71 68 66 65 63 62 62 63 62 63 63 63 62 62 62 62 61 61 62 61 62 63 65 61 60 63 64 63 60
60 66 70 68 63 60 62 60 61 61 66 67 63 60 66 66 64 63 62 62 61 60 60 60 60 60 60 59 59 61 61 61 60 60 63 63 64 64 63 63 58 60 61 59
63 70 63 63 61 63 57 67 61 58 57 52 63 49 62 64 59 60 62 61 60 60 59 59 57 56 56 57 57 57 58 58 58 57 58 56 58 58 60 60 61 60 60 58
60 62 61 59 62 66 59 61 59 59 56 56 58 53 61 69 59 61 63 61 59 57 55 54 52 53 56 57 57 57 57 58 55 54 53 54 53 54 56 56 56 58 58 57
63 68 65 64 66 65 63 57 57 58 56 43 54 55 57 64 62 65 65 62 59 54 53 52 53 54 55 56 55 57 57 57 55 54 52 49 48 47 48 47 48 50 53 54
55 58 64 65 57 61 59 54 44 43 43 42 57 52 58 64 65 66 62 61 59 55 51 52 53 52 52 54 54 54 54 53 52 51 50 49 49 49 48 45 44 43 45 44
47 45 58 62 60 55 55 55 46 37 41 49 55 45 56 65 65 63 62 62 57 51 50 51 52 53 53 54 51 51 52 51 50 49 48 47 47 47 47 45 44 43 43 43
49 51 64 63 63 63 56 49 60 48 49 43 50 58 58 60 57 57 57 58 52 49 50 49 50 52 52 52 47 47 48 49 47 46 46 45 45 45 44 45 44 43 43 44
57 48 59 58 63 62 59 61 44 46 34 34 46 50 52 48 49 53 54 53 48 48 48 51 53 52 52 49 47 45 45 45 45 45 45 45 44 45 44 44 42 43 43 43
60 54 51 54 52 54 53 50 52 51 47 38 38 45 57 52 55 52 55 55 48 47 50 51 53 53 51 50 47 44 44 44 44 44 44 44 44 44 44 43 42 42 42 41
59 53 46 50 60 63 60 54 52 40 39 44 43 44 63 62 62 61 59 58 51 49 51 54 54 53 50 48 46 45 43 43 44 45 44 44 45 45 44 42 42 42 40 40
56 46 40 44 52 58 52 56 54 53 51 42 36 43 61 62 62 64 62 60 52 50 52 54 53 51 49 46 45 44 44 44 47 47 47 47 46 46 45 45 45 44 44 43
52 48 45 39 45 47 41 49 54 52 39 41 43 48 56 55 57 61 61 59 52 50 52 53 52 50 47 45 45 44 43 45 46 46 46 44 44 44 44 44 44 44 44 43
47 41 47 50 52 44 43 43 47 45 46 36 45 46 54 57 58 57 61 56 51 49 50 51 50 47 45 44 44 45 45 45 46 45 43 42 44 44 43 42 42 43 42 42
49 37 42 40 47 50 46 50 51 51 51 48 49 48 60 63 65 63 59 54 50 49 49 50 49 46 44 43 44 44 45 46 45 43 42 42 42 42 40 40 40 40 40 39
44 41 39 34 45 44 37 47 49 51 55 53 46 55 63 61 61 60 60 55 51 49 49 48 46 44 44 43 43 43 44 46 44 42 41 40 38 37 36 37 37 36 35 36
37 36 35 32 38 24 45 56 56 52 55 57 57 59 62 62 63 62 63 55 49 48 46 43 42 41 41 41 42 44 45 44 42 40 38 38 37 35 36 34 32 32 33 31
49 43 34 29 33 41 47 53 46 46 47 56 55 59 61 63 58 49 56 53 50 45 42 36 40 40 39 38 39 43 43 42 40 36 34 34 33 31 32 30 31 31 32 31
49 48 37 34 27 25 42 55 59 55 37 56 57 57 57 52 43 49 51 48 42 39 37 36 35 35 35 35 38 39 38 38 33 35 35 35 33 31 30 31 31 31 31 31
36 37 32 33 29 37 50 56 57 34 40 54 57 56 55 46 45 46 41 36 34 36 35 35 34 32 32 35 35 33 34 31 34 35 35 34 35 32 32 32 32 31 31 31
36 34 34 35 30 27 56 53 42 48 50 52 52 52 48 40 38 34 32 32 32 32 33 34 33 33 37 39 37 32 30 33 35 35 32 31 33 34 34 32 32 32 32 31
35 40 37 40 39 44 52 51 54 51 50 49 49 50 42 36 32 31 31 31 31 31 33 36 36 38 42 43 42 37 35 36 34 32 30 31 33 33 35 33 32 33 32 31
49 52 41 42 47 51 51 54 52 52 51 51 51 49 41 32 31 31 31 31 31 32 35 38 39 40 41 44 43 42 42 42 40 38 36 36 35 34 36 36 34 31 30 30
47 48 44 43 48 48 51 53 53 51 50 50 49 46 36 34 32 32 31 31 31 32 36 40 39 39 39 42 42 43 43 43 39 38 37 36 36 35 31 29 29 30 26 26
50 44 40 40 46 45 47 52 53 48 46 48 47 41 39 38 34 34 32 33 33 34 37 38 38 38 40 40 40 41 42 42 39 37 37 36 36 35 36 34 28 26 26 25

GFSCGP_sfc_temp_135.txt.gz
Temp
59 47 43 52 56 56 56 54 52 57 63 58 56 55 62 66 63 58 57 57 54 54 56 56 55 53 52 51 51 51 50 49 50 50 50 49 49 51 51 52 53 54 53 53
51 46 56 61 60 57 57 54 52 58 64 58 55 53 59 63 62 61 58 55 54 54 54 55 52 49 49 48 49 50 49 48 49 49 49 48 48 51 51 51 52 52 52 50
48 54 62 59 58 56 56 54 54 54 59 54 53 48 54 62 61 60 59 58 57 54 53 53 51 48 47 46 47 49 48 47 47 47 48 49 49 50 48 47 48 49 50 48
52 60 58 57 55 58 50 61 60 57 52 43 52 38 51 55 60 56 56 54 53 54 52 51 48 47 46 45 47 48 48 47 48 46 45 43 42 41 43 43 45 46 47 46
51 55 54 53 57 62 55 61 56 54 47 44 46 41 46 55 50 51 52 53 53 52 48 47 47 47 47 47 45 47 47 46 46 44 42 40 39 41 43 42 43 43 45 46
55 65 59 59 63 62 64 56 53 50 46 30 45 43 43 49 56 53 55 54 52 48 48 49 50 49 47 45 45 44 44 44 44 43 42 40 39 39 39 40 42 43 44 44
51 53 62 62 54 58 57 46 29 29 28 30 49 45 49 55 60 57 54 52 49 48 46 47 47 46 44 43 43 45 42 41 41 42 42 42 43 43 40 41 41 40 40 41
41 38 53 61 55 52 52 49 34 28 27 34 50 37 47 57 59 60 58 51 49 46 47 46 47 46 44 42 40 40 42 40 42 44 42 44 43 42 42 41 41 40 40 40
42 42 58 61 60 58 49 44 53 41 40 28 38 46 52 54 53 53 51 48 45 45 45 45 46 45 42 39 39 38 39 40 44 44 43 43 43 42 41 41 41 40 41 42
50 40 54 59 61 59 53 56 40 37 29 28 37 40 36 43 45 50 46 44 43 44 44 45 45 44 42 40 39 38 39 41 43 43 43 43 42 42 42 41 40 40 40 41
53 46 44 55 51 49 49 47 47 45 39 29 27 29 48 46 49 48 47 46 43 43 43 45 45 44 42 40 38 38 40 42 42 43 42 42 42 42 41 41 41 40 38 39
53 46 38 44 56 59 54 50 48 34 33 32 29 31 53 52 53 53 51 48 45 46 46 46 46 44 42 40 38 38 41 42 40 43 43 43 39 39 37 37 37 37 37 38
45 40 32 39 48 52 49 51 51 48 40 35 26 33 53 57 55 55 52 49 47 46 46 45 45 43 42 40 39 38 38 39 42 43 40 38 37 37 36 36 36 36 36 36
46 43 41 34 38 45 43 49 50 45 34 36 35 38 48 51 50 50 48 48 47 48 49 49 45 43 41 41 39 38 39 41 41 43 39 36 36 36 35 35 35 34 35 34
39 32 35 43 44 45 42 44 46 42 41 34 40 39 46 50 49 51 49 48 47 47 48 49 44 41 40 40 39 40 39 43 42 41 36 34 35 35 35 34 33 32 31 32
41 31 33 32 42 43 38 43 43 43 43 42 40 38 50 54 56 52 53 52 49 47 49 50 46 42 41 41 39 41 41 40 39 36 35 35 34 34 32 31 31 30 29 29
37 33 31 28 38 37 31 38 41 42 46 44 37 43 50 51 54 54 53 54 48 48 49 49 43 42 41 40 41 40 40 40 37 35 35 34 32 30 29 30 29 28 26 27
35 33 32 28 32 21 38 48 48 45 46 48 50 51 52 54 52 50 52 51 49 48 49 47 42 41 39 39 41 40 40 38 35 33 33 33 31 29 28 27 25 24 25 20
41 34 27 22 24 33 39 43 41 39 40 47 45 47 50 51 49 43 47 49 49 48 43 40 40 38 37 37 41 38 36 35 33 30 29 29 29 26 25 18 18 20 24 22
41 39 28 24 21 21 33 47 53 48 31 45 47 46 44 45 34 34 39 42 38 39 38 35 35 36 36 36 37 37 34 32 29 29 29 29 28 22 15 15 17 20 22 25
29 28 27 26 25 29 39 47 51 30 30 47 47 43 41 35 35 35 35 34 35 35 35 35 35 34 33 34 33 30 29 28 30 32 31 29 28 26 24 22 20 19 20 25
30 28 27 29 25 22 46 46 37 38 43 43 44 38 35 34 33 33 33 33 33 33 33 34 33 32 34 35 33 27 27 29 30 30 28 26 26 29 28 23 24 25 22 22
25 31 27 32 29 39 44 43 45 45 44 44 40 37 35 32 32 32 31 32 32 32 32 34 33 32 33 33 33 30 30 30 29 27 20 24 28 28 28 26 23 22 22 21
37 39 28 33 37 41 44 46 48 47 46 45 42 35 34 32 32 31 31 31 31 31 32 34 33 32 31 35 34 32 32 32 30 28 28 28 27 26 25 25 24 21 19 20
33 36 31 32 37 42 43 44 42 43 45 43 39 36 34 33 32 31 30 31 31 31 32 34 33 33 33 35 34 34 34 33 30 29 29 27 26 24 24 23 20 22 17 21
37 33 29 30 40 39 40 43 45 44 43 39 35 33 35 35 32 32 31 31 32 31 33 32 33 33 34 35 34 35 35 34 32 30 28 26 25 24 23 22 20 27 26 27

GFSCGP_sfc_temp_138.txt.gz
Temp
53 45 41 51 53 51 50 48 46 49 59 54 55 56 55 60 58 52 51 51 51 50 51 52 51 49 48 47 48 47 46 46 46 45 44 46 45 47 48 49 50 49 48 48
48 43 54 58 55 52 51 48 48 53 60 55 49 51 57 60 60 54 52 50 49 50 50 49 47 46 46 46 47 46 45 45 44 44 43 44 44 45 45 46 47 47 46 45
45 50 58 54 52 50 51 49 50 50 56 52 49 45 52 59 59 57 55 53 52 50 47 47 47 44 44 44 45 45 44 44 44 44 44 43 44 44 44 43 43 44 45 44
48 56 54 52 50 53 46 57 56 55 49 39 51 38 47 53 54 53 53 51 50 50 49 48 46 43 43 43 44 44 44 43 44 42 40 39 38 38 39 39 41 42 44 43
46 50 51 48 51 57 50 58 54 54 47 41 44 38 42 52 49 48 49 51 51 49 47 46 45 45 43 43 42 42 42 42 41 40 39 38 37 37 38 38 39 41 43 44
51 58 54 53 58 58 60 54 49 45 42 32 42 43 47 44 54 50 51 50 49 46 45 46 46 46 42 42 40 39 40 40 41 40 39 38 36 36 35 37 38 38 42 42
49 50 57 60 51 55 55 47 31 29 27 33 48 43 49 52 58 55 50 49 46 46 45 44 44 42 41 40 39 39 39 38 39 38 38 38 37 36 35 36 38 36 39 39
37 35 51 59 53 50 51 51 37 28 28 36 47 35 46 53 60 58 55 51 46 44 45 44 44 42 41 40 38 38 39 39 39 39 38 38 39 38 36 40 38 36 38 39
39 40 53 59 60 58 48 44 53 40 38 28 35 43 49 49 48 52 49 46 43 43 43 44 43 41 39 38 37 36 37 38 40 41 41 42 41 41 39 40 40 37 38 40
47 40 50 54 59 57 51 53 39 34 31 29 37 38 36 40 42 46 44 42 42 43 42 43 41 40 39 38 37 36 37 38 41 42 42 42 42 40 41 40 37 36 36 37
51 45 42 49 48 47 48 47 46 45 40 33 31 32 42 45 46 44 44 43 41 42 42 42 40 40 39 38 36 36 37 38 42 42 42 40 39 37 37 35 35 35 35 35
52 44 37 43 52 55 51 50 47 35 33 35 33 36 50 49 50 49 47 44 43 43 43 43 40 39 38 37 37 36 37 38 39 40 40 36 36 36 35 34 34 34 33 33
40 38 33 37 45 51 46 50 51 48 39 36 31 36 50 52 51 51 46 44 43 43 43 41 40 39 38 38 37 37 37 38 38 39 36 35 35 34 33 33 33 33 32 31
42 37 35 31 35 40 39 47 50 47 36 37 36 39 44 47 47 46 46 44 44 44 45 42 40 40 39 39 38 38 37 38 40 39 36 34 33 33 32 32 31 31 32 29
36 31 33 34 35 38 39 41 43 42 41 35 41 40 45 47 46 46 46 46 45 45 46 45 43 41 39 39 39 40 39 40 40 38 35 32 32 33 31 30 29 29 30 28
38 30 32 30 33 33 32 34 38 36 37 37 39 37 48 51 51 49 47 47 46 45 46 46 45 41 40 39 39 39 39 39 38 34 33 33 32 31 30 29 28 28 27 27
34 32 30 26 32 31 27 34 38 40 41 39 32 41 50 49 49 49 49 49 48 48 48 48 44 41 41 40 40 38 37 37 35 33 33 31 31 30 29 29 28 26 24 24
34 32 31 27 30 19 37 46 45 41 44 46 47 48 49 50 50 50 50 51 51 52 49 48 42 41 40 40 39 38 37 35 34 32 31 30 29 28 27 26 24 22 20 14
39 32 26 23 25 32 38 43 38 35 36 44 44 47 48 47 46 43 42 46 49 49 48 41 42 40 39 38 38 36 34 33 32 30 29 29 28 26 26 20 19 19 20 15
38 36 27 27 19 19 33 44 48 44 26 43 44 43 43 42 34 38 37 39 39 40 41 40 37 38 38 36 36 33 32 31 28 29 28 28 27 23 19 15 20 19 17 14
26 24 25 24 24 27 38 44 47 29 30 43 44 41 39 36 36 35 34 33 36 37 37 37 37 36 35 35 34 31 30 27 28 29 29 29 28 26 24 20 17 24 20 14
27 23 22 25 21 16 43 43 34 37 42 43 41 37 34 34 33 32 32 32 33 33 35 36 34 34 35 35 33 29 27 28 29 29 28 26 27 29 28 22 24 24 22 14
24 29 25 28 26 37 40 39 42 44 42 41 40 36 35 33 32 32 31 32 33 33 34 35 34 33 34 35 34 29 28 30 29 28 25 26 28 27 27 24 23 22 20 18
33 37 27 32 35 38 40 42 42 42 42 41 39 38 35 33 32 31 31 31 31 32 33 34 33 31 30 33 33 31 31 31 30 28 28 28 25 24 24 24 24 21 20 18
32 35 30 28 34 37 40 41 42 42 41 38 37 36 34 33 32 32 31 31 31 31 33 34 33 31 30 31 31 32 31 31 29 29 29 27 26 24 22 21 20 21 17 21
33 30 26 26 36 36 37 42 42 41 39 38 35 34 36 35 32 32 31 31 31 31 32 32 32 31 30 30 31 31 32 31 29 29 26 25 24 23 22 22 21 27 26 26

GFSCGP_sfc_temp_141.txt.gz
Temp
52 44 41 49 50 48 47 44 43 46 57 53 50 51 57 54 55 49 47 47 47 48 51 50 47 46 45 44 45 44 44 43 43 43 43 44 42 43 44 45 45 45 44 44
46 40 51 53 52 49 47 44 44 49 57 52 50 48 54 53 53 51 50 48 48 47 48 48 46 45 45 43 43 43 42 42 41 41 41 42 42 42 42 42 43 43 43 43
43 48 54 52 49 47 46 45 46 48 54 52 45 45 47 55 53 53 53 52 51 48 46 47 46 44 43 42 42 42 41 40 41 41 41 41 41 40 39 39 40 41 42 42
46 53 52 48 47 48 42 52 51 50 45 37 48 38 47 51 53 51 51 49 49 48 48 47 45 42 42 40 41 41 41 40 40 40 38 37 36 34 36 37 38 39 41 41
44 47 46 46 49 53 45 53 50 48 44 41 43 37 44 50 49 47 49 48 48 49 47 46 44 43 42 41 39 39 40 39 38 38 37 36 35 35 36 36 37 38 39 40
47 53 51 49 53 53 55 48 46 42 40 30 42 40 47 46 53 50 50 49 49 47 46 45 45 44 40 39 37 37 38 37 38 37 36 35 34 34 34 34 34 35 37 38
47 48 53 55 47 51 50 42 29 29 27 32 46 42 49 49 55 56 48 48 48 45 43 43 41 40 39 38 37 37 38 36 37 36 36 36 34 34 34 34 33 34 34 34
35 34 47 54 50 47 47 47 34 27 26 34 45 36 45 53 56 55 53 51 48 44 44 42 41 41 39 38 37 37 38 36 37 37 36 36 36 35 35 35 34 34 34 34
36 37 49 54 57 55 47 41 49 40 36 29 33 40 48 47 49 50 48 47 43 42 43 42 41 41 38 37 36 36 37 37 37 37 37 36 36 36 36 36 35 34 34 39
45 35 48 51 56 55 51 53 39 36 26 26 36 34 37 39 43 45 44 43 42 42 41 42 41 40 39 38 36 36 37 37 38 38 38 38 37 37 37 36 34 33 33 32
48 43 41 48 45 47 45 45 45 44 41 32 30 35 41 44 43 43 44 43 41 41 42 41 40 40 38 37 36 35 36 37 37 38 38 36 35 35 34 33 33 32 32 31
41 39 35 41 51 54 49 46 47 36 35 34 38 38 49 48 47 47 45 43 41 42 41 40 39 38 37 36 36 35 35 36 38 38 36 35 35 34 32 32 32 31 29 30
40 34 28 35 43 50 45 48 48 45 40 37 33 36 48 48 46 46 41 40 41 41 39 38 38 37 38 37 36 36 36 36 37 37 35 34 33 32 31 30 30 30 29 28
42 35 32 27 29 34 34 38 39 41 34 35 37 42 43 44 44 44 42 42 41 41 40 39 38 38 38 38 37 38 36 37 37 36 34 32 31 31 30 30 30 29 28 27
37 30 32 33 33 34 33 32 37 33 39 36 38 41 44 45 44 44 43 43 41 41 41 40 39 38 39 38 39 39 37 38 38 36 33 31 31 31 30 29 29 29 28 27
37 30 31 29 33 33 31 36 36 35 36 36 36 36 47 49 49 46 45 43 42 43 43 43 42 40 38 39 38 39 39 38 38 34 32 32 31 30 29 28 27 27 26 26
34 31 30 26 32 30 26 33 36 36 34 35 30 37 41 40 45 48 48 45 44 45 45 45 42 41 39 39 39 38 39 37 34 32 32 31 30 29 28 27 26 24 22 22
32 32 31 26 29 16 35 43 42 40 39 41 41 42 44 44 49 50 52 47 46 47 47 47 44 41 40 40 40 38 34 35 33 32 31 31 29 27 26 25 21 19 17 11
39 34 27 22 24 30 36 41 35 35 36 43 43 45 47 48 47 45 46 44 47 47 48 45 45 41 39 38 38 35 35 33 32 30 30 29 29 26 25 20 16 14 17 13
37 37 30 22 16 16 31 41 45 43 27 42 43 43 40 43 34 38 37 36 38 41 44 39 39 38 37 36 37 34 31 31 29 30 29 29 28 23 19 17 16 10 9 8
29 26 26 25 23 27 37 43 45 26 30 42 43 42 42 37 36 36 34 32 32 35 37 38 37 35 34 35 35 31 30 28 30 31 30 29 27 24 22 21 20 13 9 9
27 24 24 26 23 19 41 41 34 37 40 42 41 41 37 34 34 33 32 32 30 33 34 36 34 32 34 36 34 29 28 29 30 29 28 26 26 28 26 24 22 18 11 8
23 28 25 27 25 34 38 38 41 42 40 41 40 37 35 33 32 32 32 32 32 32 33 34 33 33 35 36 34 30 29 29 29 27 25 25 27 27 26 25 22 19 15 13
33 36 27 30 33 35 38 39 41 41 40 41 41 36 36 33 32 32 31 31 32 33 33 33 34 33 32 34 34 31 30 30 29 28 27 27 25 25 26 26 24 20 17 16
32 34 30 27 33 36 38 39 40 40 40 37 36 34 34 33 32 32 31 31 31 32 33 34 33 32 31 32 31 30 29 31 29 29 28 26 26 25 24 23 21 21 16 20
32 30 27 25 35 35 36 39 40 39 38 37 35 35 36 35 32 32 31 32 32 31 33 32 32 31 30 30 29 29 30 32 30 28 26 25 25 24 23 22 20 26 25 26

GFSCGP_sfc_temp_144.txt.gz
Temp
49 42 39 47 48 46 45 42 41 42 53 49 47 47 52 53 52 48 44 45 45 45 47 50 49 45 43 42 43 43 43 42 44 43 42 41 39 40 41 42 42 42 42 42
44 39 48 51 50 47 46 43 42 46 52 49 45 46 51 51 51 53 49 47 47 45 47 48 46 43 43 42 42 42 41 41 41 41 41 41 39 39 39 40 40 41 41 41
43 47 52 49 47 44 43 42 43 44 49 48 44 48 49 50 50 55 54 53 50 48 46 47 45 43 41 40 40 40 39 40 40 41 42 41 40 39 38 38 38 39 40 40
44 51 49 45 44 47 40 48 49 46 41 35 45 36 46 47 48 49 51 50 49 48 48 47 45 42 40 40 40 40 40 40 40 40 40 38 36 34 35 35 36 37 39 39
43 45 44 45 48 49 44 50 46 45 39 36 40 35 41 51 44 45 49 49 49 49 47 45 45 44 42 40 38 37 39 38 38 38 37 36 34 34 35 35 35 36 37 38
45 51 48 47 50 51 52 45 44 40 38 26 39 38 45 42 52 50 51 50 50 49 46 46 45 44 40 37 36 36 37 37 38 36 35 35 33 33 33 33 33 34 35 36
45 46 48 51 44 47 45 39 26 26 25 29 44 38 47 49 52 53 51 50 50 47 44 43 42 41 38 36 36 36 36 35 35 35 34 34 33 33 33 32 33 33 33 33
35 34 45 50 48 45 47 44 33 28 27 32 42 33 44 51 53 52 53 52 48 44 44 43 42 40 38 37 35 36 36 35 35 35 34 34 35 35 34 34 33 33 33 32
35 35 47 51 54 52 43 40 47 37 37 29 33 38 48 47 48 47 46 45 44 42 42 42 41 39 38 37 36 35 35 35 35 35 35 35 35 35 34 33 33 32 32 35
42 35 45 49 51 51 48 49 36 33 25 24 31 35 36 41 43 44 42 41 43 42 41 41 40 39 39 38 37 36 37 36 36 37 36 36 35 35 34 33 31 31 30 30
40 40 38 44 41 42 44 42 44 41 35 28 27 31 44 45 48 47 44 43 40 40 40 40 40 40 40 39 38 37 37 37 36 36 36 35 34 33 33 32 31 29 30 29
41 37 30 36 48 51 49 43 43 33 30 31 32 32 48 47 47 46 45 41 39 41 41 40 39 39 37 37 36 36 35 36 36 37 36 33 33 32 31 30 29 29 29 29
39 33 28 32 38 41 38 39 39 39 36 29 27 31 46 46 45 45 41 38 39 38 38 37 37 37 36 36 36 36 36 36 38 37 35 33 32 31 29 29 29 29 28 28
42 36 31 26 31 33 30 35 36 33 28 31 32 35 43 45 44 42 39 39 38 38 38 37 37 37 37 37 37 36 36 37 37 36 35 32 31 30 29 29 29 29 28 27
38 28 32 32 32 33 32 33 34 32 34 28 32 35 43 43 44 44 43 41 39 38 38 39 38 38 38 38 38 38 37 38 38 36 33 31 30 30 29 29 29 29 28 27
38 27 31 23 31 31 31 35 36 35 35 34 33 33 42 43 44 43 43 41 40 40 40 41 41 40 38 38 38 38 38 37 37 34 32 32 31 30 29 28 28 27 26 26
33 31 27 24 27 27 25 31 35 36 37 35 29 36 42 41 40 43 44 44 43 43 43 42 42 40 40 40 40 37 38 37 35 33 31 31 30 29 27 27 26 24 22 23
33 32 30 27 29 19 33 41 41 38 40 38 39 40 43 43 44 44 46 46 47 45 45 44 44 42 42 40 39 39 38 34 32 31 31 30 29 27 26 24 21 19 17 10
39 34 28 25 25 28 34 39 34 33 34 42 39 42 45 46 45 42 47 43 42 46 46 44 46 43 40 38 39 36 33 33 31 31 30 29 28 26 24 19 17 16 16 11
38 37 30 26 18 14 30 40 43 41 26 41 42 42 42 41 31 37 39 37 36 37 41 44 41 40 38 37 37 35 32 32 30 29 30 29 28 24 19 17 15 8 8 8
29 30 27 26 23 26 36 42 43 26 29 41 42 42 39 35 36 36 34 33 32 35 36 40 39 36 35 36 35 33 32 31 30 31 30 28 27 23 21 18 15 9 8 8
29 27 24 27 24 20 40 39 33 35 38 40 40 40 38 36 33 33 33 32 29 31 33 36 35 36 36 37 36 32 31 30 30 30 29 26 25 26 24 19 17 14 9 7
26 29 25 28 27 35 37 38 40 40 39 39 38 39 38 33 33 33 32 32 31 29 32 33 33 33 34 36 35 31 29 29 29 28 26 25 26 26 24 20 16 15 13 14
35 35 28 30 35 34 37 38 39 38 39 38 39 38 33 31 33 32 32 32 32 32 32 32 32 31 31 33 34 31 29 30 29 27 26 27 27 25 24 23 21 18 16 16
34 35 32 29 34 35 37 36 38 40 39 36 34 33 34 34 33 32 31 31 32 32 33 33 31 31 32 33 30 30 29 29 28 28 28 27 27 26 24 23 21 20 19 20
32 31 30 28 36 35 36 38 39 39 38 38 35 34 36 35 33 32 31 32 32 32 33 32 32 31 31 30 29 29 29 30 29 28 27 27 25 24 22 22 21 25 24 26

GFSCGP_sfc_temp_147.txt.gz
Temp
56 51 48 53 54 56 53 50 51 55 60 56 57 59 63 65 59 60 59 59 59 58 58 56 54 53 54 55 55 55 54 54 55 55 54 53 51 50 50 51 50 50 50 50
50 47 55 56 53 52 51 49 49 54 57 56 57 56 62 63 60 62 61 59 58 58 53 54 52 52 53 53 54 53 54 54 55 56 54 54 51 50 50 50 49 50 49 49
50 54 55 52 51 48 48 47 49 49 55 57 54 54 60 61 63 62 64 64 62 57 54 52 51 50 53 52 52 52 53 53 53 53 52 51 50 49 49 48 47 47 48 48
49 56 53 48 48 51 45 53 52 50 48 43 53 43 58 60 59 58 60 61 60 58 55 54 51 49 51 51 51 51 51 51 51 52 52 51 53 48 47 46 47 47 47 47
48 48 48 48 51 52 49 54 51 50 47 45 48 44 55 60 56 56 58 60 60 59 55 53 51 51 52 49 49 49 49 50 49 50 51 50 47 46 46 46 45 45 46 46
49 55 53 52 53 54 55 51 50 46 46 37 46 47 51 59 59 61 60 59 58 57 55 54 53 51 49 48 47 48 48 48 48 48 47 47 46 44 45 44 44 44 44 44
48 50 54 56 51 53 51 46 37 33 34 35 49 45 51 60 62 64 62 59 57 56 53 52 49 48 46 44 44 46 46 44 45 46 46 46 45 45 44 44 44 43 43 43
38 39 48 53 51 49 48 47 38 27 29 37 45 40 51 58 58 60 62 62 57 54 53 51 50 49 46 44 44 45 44 43 44 44 44 45 45 46 45 45 44 44 43 42
39 39 51 53 55 53 45 41 50 36 35 30 37 46 56 57 57 56 54 53 54 52 51 50 50 48 46 45 44 44 44 44 43 44 44 44 45 44 43 43 43 43 43 42
44 37 47 51 55 54 51 54 39 34 27 27 34 38 41 49 52 57 56 53 51 51 49 49 48 47 46 46 45 44 44 44 44 44 44 44 44 44 43 42 40 40 40 41
46 39 41 48 46 44 47 45 46 45 36 30 31 38 50 51 53 53 57 57 53 49 48 48 47 46 46 45 44 43 43 43 43 43 44 42 42 42 41 40 40 40 39 40
42 37 31 39 49 51 48 44 44 33 30 34 33 36 56 54 54 53 55 53 51 49 48 48 47 45 44 43 43 42 43 43 42 42 41 40 40 40 39 38 38 39 38 38
42 35 29 35 42 44 40 42 40 37 34 30 27 34 53 53 52 55 53 52 46 45 45 46 44 43 43 42 41 42 41 42 41 41 40 39 38 38 38 37 37 38 38 38
44 38 33 28 34 38 32 39 40 36 30 32 33 35 44 48 45 50 53 48 46 44 43 43 43 42 42 41 41 41 41 41 41 40 40 39 38 38 37 37 37 37 37 37
41 29 31 35 38 38 34 35 38 35 37 31 38 39 44 47 44 46 47 45 42 41 41 42 42 42 42 41 42 42 41 41 40 40 38 37 37 37 36 35 35 35 35 36
37 30 30 29 33 33 30 35 37 37 38 37 37 37 48 50 49 46 45 46 43 42 42 42 42 42 41 41 40 41 40 40 40 38 36 37 35 35 34 34 33 34 33 35
33 31 30 27 33 31 27 33 36 39 40 38 31 41 49 46 47 47 47 44 44 45 44 44 42 42 42 42 40 39 40 40 39 36 34 34 34 33 33 33 33 32 31 33
33 31 32 27 31 21 40 45 44 41 43 45 44 45 47 48 49 50 50 47 45 46 45 45 44 42 41 40 40 40 38 37 35 33 32 32 33 31 31 30 28 27 28 27
38 33 28 25 27 34 38 43 40 38 40 46 44 46 48 49 49 47 51 51 50 47 46 45 45 43 40 39 38 37 33 35 33 31 30 31 32 29 29 25 23 25 25 25
38 37 29 29 23 22 37 44 47 44 32 46 46 45 46 46 39 45 41 39 38 40 43 45 43 41 40 38 38 36 33 33 31 31 31 31 31 26 23 23 22 24 25 24
30 30 26 27 25 33 42 46 47 31 36 46 47 47 47 43 46 41 36 35 34 37 39 42 45 39 37 38 36 33 32 32 32 31 31 31 30 27 25 23 23 22 23 23
30 29 27 29 25 23 44 41 37 42 44 47 46 47 44 45 43 35 33 33 33 34 37 40 38 37 38 38 37 33 32 32 31 31 31 29 28 29 27 23 23 22 21 21
27 34 32 33 33 40 42 43 45 46 45 45 44 45 44 42 34 33 33 33 32 33 35 37 37 36 37 38 38 33 30 31 30 30 28 28 29 28 27 24 22 23 23 24
38 40 32 34 40 41 41 44 46 46 45 46 45 43 41 34 33 32 33 33 33 33 35 36 35 34 35 37 36 32 30 31 30 29 30 31 29 27 28 27 27 26 24 24
33 33 35 35 39 39 43 44 46 45 45 44 42 41 37 36 34 35 33 33 33 33 34 36 35 33 32 33 31 31 30 31 29 29 30 30 29 28 27 27 27 27 27 28
36 34 31 33 42 41 43 46 45 44 45 45 43 39 38 38 35 35 34 35 34 33 34 34 34 34 32 31 30 30 31 31 31 30 30 29 29 29 28 26 25 26 26 26

GFSCGP_sfc_temp_150.txt.gz
Temp
65 61 57 64 66 67 66 62 62 67 71 65 67 69 74 78 76 74 77 78 77 76 79 76 71 69 68 67 67 67 65 64 65 65 65 65 63 62 61 61 59 59 59 58
58 55 65 67 64 63 62 59 60 66 69 65 65 66 73 76 75 76 76 76 77 77 77 72 68 66 65 66 66 66 66 64 66 68 68 67 64 62 62 60 58 58 57 57
58 63 64 61 60 57 59 58 59 59 65 67 64 62 68 75 76 77 76 78 79 77 76 71 66 65 65 65 65 66 66 65 66 65 63 62 61 60 60 59 58 57 56 56
58 64 61 59 57 60 54 65 60 58 57 53 63 51 65 72 72 73 74 75 77 78 78 75 68 64 64 65 65 66 64 64 64 63 63 61 64 62 60 59 58 56 56 55
56 56 55 54 58 62 55 61 59 59 56 56 57 53 64 69 67 71 74 74 76 78 79 76 69 67 66 65 63 63 62 63 62 62 64 63 62 59 59 57 55 54 54 55
57 66 60 59 60 60 62 57 57 57 55 44 55 55 59 66 65 68 75 76 76 77 78 76 71 68 66 65 62 61 60 61 61 61 61 61 58 57 57 56 55 55 55 55
55 56 61 62 56 60 58 53 44 43 42 43 58 54 59 68 67 69 69 72 77 75 74 72 69 65 63 60 59 59 60 59 59 59 59 58 57 57 55 55 54 53 53 53
46 44 55 61 56 54 55 53 43 33 38 47 52 47 58 67 69 69 70 69 70 71 70 68 67 64 63 59 58 58 58 57 57 57 57 57 57 57 56 55 54 52 52 51
47 46 58 59 60 59 52 47 56 40 41 34 46 56 64 65 65 67 68 69 69 68 67 66 66 64 62 58 56 56 57 57 56 55 55 54 55 54 53 51 52 51 50 50
50 42 53 56 59 59 56 56 40 39 29 31 46 48 49 57 57 59 60 62 64 68 64 63 63 61 61 58 56 55 56 55 54 54 53 53 53 52 51 50 49 49 48 49
52 47 48 52 51 49 51 48 48 46 39 33 36 44 62 58 59 58 62 64 66 65 66 63 62 61 58 56 55 53 54 53 52 51 52 52 51 50 50 48 48 47 48 48
50 46 40 46 55 57 55 50 48 36 37 37 36 40 63 62 61 63 63 64 67 70 65 65 62 58 55 55 53 51 52 52 51 52 50 50 49 49 46 45 44 45 47 47
49 42 34 41 48 51 48 48 48 47 42 35 31 40 61 61 62 65 61 61 62 64 64 62 60 56 53 52 52 51 51 52 52 50 47 47 45 45 42 43 43 46 46 46
48 43 36 34 41 47 41 46 49 45 36 39 41 45 53 57 59 62 60 59 60 59 59 58 57 54 53 51 50 49 49 51 49 47 44 42 42 42 42 42 42 44 46 46
46 32 36 39 43 44 42 43 45 43 44 36 42 45 52 57 57 59 59 58 56 55 55 55 54 54 51 49 48 48 47 47 45 43 42 42 42 42 42 41 43 43 45 45
38 33 32 31 38 39 36 43 44 44 45 45 45 45 57 59 60 57 57 58 54 50 52 53 52 52 49 48 48 48 47 45 44 42 41 40 39 40 39 40 40 41 42 42
39 36 33 30 40 37 30 40 43 46 49 45 37 48 57 55 56 57 57 59 57 54 48 48 51 51 50 48 48 48 44 43 42 40 39 38 39 38 38 38 37 38 40 41
37 36 33 29 35 22 43 55 53 49 51 54 53 53 55 57 58 58 61 59 57 55 53 49 45 45 47 47 44 42 40 37 34 33 33 35 36 33 33 32 32 35 36 33
44 39 30 26 29 37 44 49 47 44 44 55 54 56 57 58 57 57 55 54 53 52 51 47 46 43 42 40 38 35 32 32 32 32 32 32 32 31 31 30 30 31 32 31
45 42 32 31 24 23 40 52 58 55 37 56 55 53 52 54 45 52 52 49 47 46 47 49 45 43 41 38 37 33 32 32 32 32 32 32 32 30 28 29 29 30 31 30
34 33 28 30 26 35 49 54 54 33 41 55 56 53 52 49 53 55 44 38 37 43 44 46 48 42 37 39 37 33 32 32 32 32 32 32 31 28 29 29 30 30 30 30
34 32 31 32 27 25 53 50 40 49 54 55 55 54 51 53 53 43 37 35 36 36 42 44 42 40 40 40 37 33 32 32 32 32 31 30 28 28 30 28 29 30 30 28
30 37 35 39 38 48 51 49 50 50 52 53 54 54 52 51 38 35 35 36 35 36 41 42 40 38 39 39 38 33 32 32 31 31 29 28 28 31 31 30 28 30 30 30
42 47 37 38 45 48 50 55 54 56 54 56 56 54 50 36 34 34 35 35 36 37 43 42 39 36 36 38 37 33 32 32 31 30 29 29 29 31 33 33 33 32 31 31
40 42 38 38 43 45 48 52 54 55 55 54 53 52 48 44 38 42 39 37 37 38 42 44 39 36 35 34 32 32 32 32 31 30 30 29 30 33 33 34 35 34 33 34
41 37 34 34 44 43 41 50 53 53 52 55 53 48 48 47 42 41 39 41 40 38 41 40 40 36 33 32 31 32 33 33 32 31 30 30 30 33 34 33 31 30 30 29

GFSCGP_sfc_temp_153.txt.gz
Temp
68 63 61 66 70 70 69 67 67 72 78 74 72 72 77 83 84 82 81 83 86 86 88 87 82 80 80 79 75 74 71 69 70 70 69 68 67 67 67 67 64 64 64 63
66 59 69 73 72 68 66 64 64 71 76 73 71 70 76 80 81 83 83 81 84 86 86 85 81 78 76 75 73 73 72 70 71 72 72 72 69 68 67 65 63 63 62 62
62 67 72 68 65 63 64 62 63 64 71 73 69 66 72 80 82 83 84 84 84 84 84 84 80 75 73 72 72 73 72 70 71 73 72 69 67 64 63 61 61 61 61 61
65 71 67 65 63 65 58 69 67 65 61 56 72 56 69 75 77 80 82 82 83 83 85 86 81 75 72 71 73 73 73 71 71 71 68 64 63 62 65 64 62 60 60 59
61 64 61 60 63 67 62 67 63 63 60 59 62 59 65 74 72 75 79 80 82 83 84 84 85 77 75 72 72 72 72 71 70 68 67 65 66 68 64 63 58 59 59 59
63 72 65 63 65 64 67 61 62 62 59 48 58 59 61 68 67 71 76 78 79 81 83 84 86 79 75 74 72 70 70 69 69 67 67 65 66 63 62 60 59 59 59 58
60 61 67 66 58 64 62 56 45 45 46 46 63 60 63 70 70 70 71 73 76 76 78 80 82 79 75 72 69 68 68 67 67 65 65 66 66 63 61 60 61 59 57 57
53 50 63 67 61 57 59 56 46 35 40 47 56 52 62 71 72 72 73 72 73 73 73 75 77 78 76 72 70 66 66 65 66 64 64 65 64 63 63 62 61 60 59 57
51 51 62 63 64 63 56 50 59 46 46 38 51 61 69 72 67 67 67 69 70 70 71 71 73 74 73 71 68 64 64 66 64 63 63 62 62 62 61 60 59 57 56 55
54 46 59 60 62 63 58 60 44 46 33 35 48 53 55 60 58 63 64 66 69 72 73 71 69 70 71 70 67 63 62 63 61 59 59 59 59 59 58 56 55 54 54 54
58 51 51 56 54 54 54 51 50 49 44 37 38 47 66 60 62 62 65 68 68 69 70 74 73 69 69 67 63 58 57 58 58 57 56 55 55 55 55 53 53 52 51 52
55 50 45 49 58 60 57 53 51 40 39 43 41 42 64 65 66 66 67 69 69 68 69 70 73 72 67 64 63 59 57 58 57 56 55 53 53 52 51 50 50 49 48 49
54 46 37 43 53 58 52 55 54 53 49 39 35 41 64 65 65 67 67 69 69 66 67 67 68 68 67 64 61 59 56 57 56 55 53 52 50 49 46 46 46 46 47 46
50 47 40 36 45 46 39 46 52 50 39 41 43 48 56 59 61 64 66 67 68 66 65 65 65 64 64 62 60 57 55 56 55 53 51 49 47 45 45 44 45 45 45 45
49 36 40 43 47 48 46 46 49 47 48 40 46 48 55 59 60 63 66 65 64 65 65 63 61 61 59 58 56 55 53 52 53 52 48 46 45 44 43 42 43 44 44 44
46 36 36 34 42 43 41 47 49 48 49 48 49 48 60 62 64 63 63 64 63 63 64 63 60 58 56 53 52 51 51 50 50 47 45 43 42 41 41 41 39 40 41 41
44 39 36 32 43 41 33 43 47 49 52 49 41 50 58 58 61 62 63 63 62 62 62 61 60 58 53 51 49 48 48 48 45 42 42 41 39 39 37 36 35 36 38 41
42 39 38 32 37 23 44 55 55 51 53 57 57 58 60 62 63 64 66 63 60 61 60 60 61 58 51 47 48 46 46 42 40 38 36 35 34 33 32 32 32 34 36 34
48 42 32 28 31 39 45 51 49 48 48 57 55 57 60 64 63 61 62 59 58 57 55 54 56 56 51 45 43 40 36 35 34 32 32 32 32 31 31 30 31 32 32 32
48 46 37 32 25 23 41 53 60 57 40 59 58 57 59 60 48 54 58 55 53 51 54 53 51 51 48 43 40 34 32 32 32 32 32 32 32 31 30 30 31 31 32 32
38 37 31 31 28 36 50 55 58 36 41 54 54 59 58 54 57 59 52 44 41 48 51 52 50 49 40 40 35 33 32 32 32 32 32 32 32 30 30 30 31 31 31 31
36 34 32 32 27 25 55 53 43 49 52 55 54 55 56 57 58 52 44 37 37 38 50 51 44 42 41 41 35 33 32 32 32 32 32 30 30 30 30 30 30 31 31 30
33 40 36 39 38 51 56 53 56 57 54 54 54 53 55 56 45 42 38 37 36 38 51 51 46 41 41 41 38 34 32 32 32 31 29 29 29 29 30 30 30 31 31 31
45 49 40 39 45 50 53 55 57 58 56 59 59 58 56 40 36 36 36 36 37 40 50 51 45 39 37 39 37 34 33 33 32 30 29 29 28 28 29 32 34 33 32 32
43 45 41 41 47 50 52 54 55 53 52 57 60 59 58 48 43 49 44 40 40 41 46 48 43 39 36 36 34 33 32 32 30 30 29 28 28 28 29 33 35 35 36 36
45 40 37 37 47 47 48 52 55 51 52 57 58 58 56 55 51 50 47 48 48 44 45 45 41 38 34 34 32 32 33 34 33 31 30 30 29 30 33 34 32 32 32 32